Eleven Point River (Missouri), Ravenden Springs (07072000)

StateMissouriLatestPoor (690 cfs)
RiverEleven Point RiverRatingObservedEstimated
Updated2026-05-10 14:45 (1 hour ago)Flood - The river is flooding. Obstacles can be treacherous or deadly. The river should be avoided at this stage for casual trips and definitely for the inexperienced. Trips should be attempted only with protective gear and equipment.Flood(none)3347
Discharge690 cfs (median: 1660 cfs)High - The river is high and potentially dangerous, especially for the young and / or inexperienced. Normal stream obstacles are sometimes difficult to navigate. Extended distances can be attempted, but canoe travel may not be advisable.High(none)1472
Height3.03 feetGood - Conditions are ideal for a canoe or kayak. Boats typically will drag on fewer than one-quarter of riffles, if at all, and portages are unnecessary or rare. Normal float lengths can be attempted without a problem.Good(none)1059
TrendSteady (falling over 24 hours)Low - River is low but can still be floated. Some riffles are okay but most come with significant dragging and might need a portage. Float lengths should be reduced to accommodate low flow, dragging, and portages.Low(none)802
USGSExternal icon USGS Site (External icon Duck Duck Go Maps)Poor - River is too low to float comfortably. Most or all riffles will drag or must be portaged and some obstacles (such as slick shelf rock) cause undue problems. Avoid the river at this stage for casual paddling trips.Poor(none)423

Trending Data

Plot Image

Trips for Eleven Point River (Missouri), Ravenden Springs (07072000)

DateStartEndDistanceConditionDischargeHeightFishingDetails

A total of 0 rows are displayed.

Condition Descriptions

Fishing Conditions

Fish Species

Notes

Classic Trip List

The classic River Trips application is still available for use. It is updated with the new system using a data retrofit. It is no longer maintained. The original River Trips application is no longer updated (as of 1 Dec 2016) but can be checked for errors or for the condition of the data before it was converted to the new system.

Gauge Data Table

ObservationHeightDischargeMaximum
Discharge
Minimum
Discharge
Mean
Discharge
P05P10P20P25P50
(Median)
P75P80P90P95
2026-05-10 14:45 3.03 690 11400 (2002) 387 (1981) 2000 518 697 983 1060 1660 2200 2530 3510 4670
2026-05-10 13:45 3.03 690 11400 (2002) 387 (1981) 2000 518 697 983 1060 1660 2200 2530 3510 4670
2026-05-10 12:45 3.04 697 11400 (2002) 387 (1981) 2000 518 697 983 1060 1660 2200 2530 3510 4670
2026-05-10 11:45 3.04 697 11400 (2002) 387 (1981) 2000 518 697 983 1060 1660 2200 2530 3510 4670
2026-05-10 10:45 3.03 690 11400 (2002) 387 (1981) 2000 518 697 983 1060 1660 2200 2530 3510 4670
2026-05-10 09:45 3.03 690 11400 (2002) 387 (1981) 2000 518 697 983 1060 1660 2200 2530 3510 4670
2026-05-10 08:45 3.03 690 11400 (2002) 387 (1981) 2000 518 697 983 1060 1660 2200 2530 3510 4670
2026-05-10 07:45 3.03 690 11400 (2002) 387 (1981) 2000 518 697 983 1060 1660 2200 2530 3510 4670
2026-05-10 06:45 3.03 690 11400 (2002) 387 (1981) 2000 518 697 983 1060 1660 2200 2530 3510 4670
2026-05-10 05:45 3.03 690 11400 (2002) 387 (1981) 2000 518 697 983 1060 1660 2200 2530 3510 4670
2026-05-10 04:45 3.03 690 11400 (2002) 387 (1981) 2000 518 697 983 1060 1660 2200 2530 3510 4670
2026-05-10 03:45 3.04 697 11400 (2002) 387 (1981) 2000 518 697 983 1060 1660 2200 2530 3510 4670
2026-05-10 02:45 3.04 697 11400 (2002) 387 (1981) 2000 518 697 983 1060 1660 2200 2530 3510 4670
2026-05-10 01:45 3.04 697 11400 (2002) 387 (1981) 2000 518 697 983 1060 1660 2200 2530 3510 4670
2026-05-10 00:45 3.04 697 11400 (2002) 387 (1981) 2000 518 697 983 1060 1660 2200 2530 3510 4670
2026-05-09 23:45 3.04 697 11400 (2002) 387 (1981) 2000 518 697 983 1060 1660 2200 2530 3510 4670
2026-05-09 22:45 3.04 697 16700 (2002) 380 (1981) 2130 526 717 976 1030 1510 2140 2400 3760 6840
2026-05-09 21:45 3.04 697 16700 (2002) 380 (1981) 2130 526 717 976 1030 1510 2140 2400 3760 6840
2026-05-09 20:45 3.05 705 16700 (2002) 380 (1981) 2130 526 717 976 1030 1510 2140 2400 3760 6840
2026-05-09 19:45 3.05 705 16700 (2002) 380 (1981) 2130 526 717 976 1030 1510 2140 2400 3760 6840
2026-05-09 18:45 3.05 705 16700 (2002) 380 (1981) 2130 526 717 976 1030 1510 2140 2400 3760 6840
2026-05-09 17:45 3.06 712 16700 (2002) 380 (1981) 2130 526 717 976 1030 1510 2140 2400 3760 6840
2026-05-09 16:45 3.06 712 16700 (2002) 380 (1981) 2130 526 717 976 1030 1510 2140 2400 3760 6840
2026-05-09 15:45 3.05 705 16700 (2002) 380 (1981) 2130 526 717 976 1030 1510 2140 2400 3760 6840
2026-05-09 14:45 3.05 705 16700 (2002) 380 (1981) 2130 526 717 976 1030 1510 2140 2400 3760 6840
2026-05-09 13:45 3.07 720 16700 (2002) 380 (1981) 2130 526 717 976 1030 1510 2140 2400 3760 6840
2026-05-09 12:45 3.07 720 16700 (2002) 380 (1981) 2130 526 717 976 1030 1510 2140 2400 3760 6840
2026-05-09 11:45 3.07 720 16700 (2002) 380 (1981) 2130 526 717 976 1030 1510 2140 2400 3760 6840
2026-05-09 10:45 3.06 712 16700 (2002) 380 (1981) 2130 526 717 976 1030 1510 2140 2400 3760 6840
2026-05-09 09:45 3.06 712 16700 (2002) 380 (1981) 2130 526 717 976 1030 1510 2140 2400 3760 6840
2026-05-09 08:45 3.06 712 16700 (2002) 380 (1981) 2130 526 717 976 1030 1510 2140 2400 3760 6840
2026-05-09 07:45 3.06 712 16700 (2002) 380 (1981) 2130 526 717 976 1030 1510 2140 2400 3760 6840
2026-05-09 06:45 3.06 712 16700 (2002) 380 (1981) 2130 526 717 976 1030 1510 2140 2400 3760 6840
2026-05-09 05:45 3.06 712 16700 (2002) 380 (1981) 2130 526 717 976 1030 1510 2140 2400 3760 6840
2026-05-09 04:45 3.06 712 16700 (2002) 380 (1981) 2130 526 717 976 1030 1510 2140 2400 3760 6840
2026-05-09 03:45 3.06 712 16700 (2002) 380 (1981) 2130 526 717 976 1030 1510 2140 2400 3760 6840
2026-05-09 02:45 3.06 712 16700 (2002) 380 (1981) 2130 526 717 976 1030 1510 2140 2400 3760 6840
2026-05-09 01:45 3.06 712 16700 (2002) 380 (1981) 2130 526 717 976 1030 1510 2140 2400 3760 6840
2026-05-09 00:45 3.06 712 16700 (2002) 380 (1981) 2130 526 717 976 1030 1510 2140 2400 3760 6840
2026-05-08 23:45 3.07 720 16700 (2002) 380 (1981) 2130 526 717 976 1030 1510 2140 2400 3760 6840
2026-05-08 22:45 3.07 720 24600 (1961) 380 (1981) 2110 549 732 952 1040 1580 2220 2440 3720 4840
2026-05-08 21:45 3.07 720 24600 (1961) 380 (1981) 2110 549 732 952 1040 1580 2220 2440 3720 4840
2026-05-08 20:45 3.07 720 24600 (1961) 380 (1981) 2110 549 732 952 1040 1580 2220 2440 3720 4840
2026-05-08 19:45 3.07 720 24600 (1961) 380 (1981) 2110 549 732 952 1040 1580 2220 2440 3720 4840
2026-05-08 18:45 3.08 727 24600 (1961) 380 (1981) 2110 549 732 952 1040 1580 2220 2440 3720 4840
2026-05-08 17:45 3.07 720 24600 (1961) 380 (1981) 2110 549 732 952 1040 1580 2220 2440 3720 4840
2026-05-08 16:45 3.07 720 24600 (1961) 380 (1981) 2110 549 732 952 1040 1580 2220 2440 3720 4840
2026-05-08 15:45 3.09 735 24600 (1961) 380 (1981) 2110 549 732 952 1040 1580 2220 2440 3720 4840
2026-05-08 14:45 3.08 727 24600 (1961) 380 (1981) 2110 549 732 952 1040 1580 2220 2440 3720 4840
2026-05-08 13:45 3.07 720 24600 (1961) 380 (1981) 2110 549 732 952 1040 1580 2220 2440 3720 4840
2026-05-08 12:45 3.06 712 24600 (1961) 380 (1981) 2110 549 732 952 1040 1580 2220 2440 3720 4840
2026-05-08 11:45 3.06 712 24600 (1961) 380 (1981) 2110 549 732 952 1040 1580 2220 2440 3720 4840
2026-05-08 10:45 3.07 720 24600 (1961) 380 (1981) 2110 549 732 952 1040 1580 2220 2440 3720 4840
2026-05-08 09:45 3.08 727 24600 (1961) 380 (1981) 2110 549 732 952 1040 1580 2220 2440 3720 4840
2026-05-08 08:45 3.08 727 24600 (1961) 380 (1981) 2110 549 732 952 1040 1580 2220 2440 3720 4840
2026-05-08 07:45 3.09 735 24600 (1961) 380 (1981) 2110 549 732 952 1040 1580 2220 2440 3720 4840
2026-05-08 06:45 3.09 735 24600 (1961) 380 (1981) 2110 549 732 952 1040 1580 2220 2440 3720 4840
2026-05-08 05:45 3.09 735 24600 (1961) 380 (1981) 2110 549 732 952 1040 1580 2220 2440 3720 4840
2026-05-08 04:45 3.09 735 24600 (1961) 380 (1981) 2110 549 732 952 1040 1580 2220 2440 3720 4840
2026-05-08 03:45 3.09 735 24600 (1961) 380 (1981) 2110 549 732 952 1040 1580 2220 2440 3720 4840
2026-05-08 02:45 3.10 742 24600 (1961) 380 (1981) 2110 549 732 952 1040 1580 2220 2440 3720 4840
2026-05-08 01:45 3.10 742 24600 (1961) 380 (1981) 2110 549 732 952 1040 1580 2220 2440 3720 4840
2026-05-08 00:45 3.10 742 24600 (1961) 380 (1981) 2110 549 732 952 1040 1580 2220 2440 3720 4840
2026-05-07 23:45 3.10 742 24600 (1961) 380 (1981) 2110 549 732 952 1040 1580 2220 2440 3720 4840
2026-05-07 22:45 3.10 742 11300 (1961) 381 (1981) 2020 575 639 912 1050 1690 2190 2460 3620 6100
2026-05-07 21:45 3.11 750 11300 (1961) 381 (1981) 2020 575 639 912 1050 1690 2190 2460 3620 6100
2026-05-07 20:45 3.11 750 11300 (1961) 381 (1981) 2020 575 639 912 1050 1690 2190 2460 3620 6100
2026-05-07 19:45 3.11 750 11300 (1961) 381 (1981) 2020 575 639 912 1050 1690 2190 2460 3620 6100
2026-05-07 18:45 3.11 750 11300 (1961) 381 (1981) 2020 575 639 912 1050 1690 2190 2460 3620 6100
2026-05-07 17:45 3.12 757 11300 (1961) 381 (1981) 2020 575 639 912 1050 1690 2190 2460 3620 6100
2026-05-07 16:45 3.12 757 11300 (1961) 381 (1981) 2020 575 639 912 1050 1690 2190 2460 3620 6100
2026-05-07 15:45 3.13 765 11300 (1961) 381 (1981) 2020 575 639 912 1050 1690 2190 2460 3620 6100
2026-05-07 14:45 3.14 773 11300 (1961) 381 (1981) 2020 575 639 912 1050 1690 2190 2460 3620 6100
2026-05-07 13:45 3.14 773 11300 (1961) 381 (1981) 2020 575 639 912 1050 1690 2190 2460 3620 6100
2026-05-07 12:45 3.14 773 11300 (1961) 381 (1981) 2020 575 639 912 1050 1690 2190 2460 3620 6100
2026-05-07 11:45 3.13 765 11300 (1961) 381 (1981) 2020 575 639 912 1050 1690 2190 2460 3620 6100
2026-05-07 10:45 3.13 765 11300 (1961) 381 (1981) 2020 575 639 912 1050 1690 2190 2460 3620 6100
2026-05-07 09:45 3.13 765 11300 (1961) 381 (1981) 2020 575 639 912 1050 1690 2190 2460 3620 6100
2026-05-07 08:45 3.13 765 11300 (1961) 381 (1981) 2020 575 639 912 1050 1690 2190 2460 3620 6100
2026-05-07 07:45 3.13 765 11300 (1961) 381 (1981) 2020 575 639 912 1050 1690 2190 2460 3620 6100
2026-05-07 06:45 3.13 765 11300 (1961) 381 (1981) 2020 575 639 912 1050 1690 2190 2460 3620 6100
2026-05-07 05:45 3.14 773 11300 (1961) 381 (1981) 2020 575 639 912 1050 1690 2190 2460 3620 6100
2026-05-07 04:45 3.14 773 11300 (1961) 381 (1981) 2020 575 639 912 1050 1690 2190 2460 3620 6100
2026-05-07 03:45 3.14 773 11300 (1961) 381 (1981) 2020 575 639 912 1050 1690 2190 2460 3620 6100
2026-05-07 02:45 3.14 773 11300 (1961) 381 (1981) 2020 575 639 912 1050 1690 2190 2460 3620 6100
2026-05-07 01:45 3.14 773 11300 (1961) 381 (1981) 2020 575 639 912 1050 1690 2190 2460 3620 6100
2026-05-07 00:45 3.14 773 11300 (1961) 381 (1981) 2020 575 639 912 1050 1690 2190 2460 3620 6100
2026-05-06 23:45 3.15 780 11300 (1961) 381 (1981) 2020 575 639 912 1050 1690 2190 2460 3620 6100
2026-05-06 22:45 3.15 780 12600 (1958) 393 (1981) 2160 567 630 915 1030 1600 2300 2610 3420 7330
2026-05-06 21:45 3.15 780 12600 (1958) 393 (1981) 2160 567 630 915 1030 1600 2300 2610 3420 7330
2026-05-06 20:45 3.15 780 12600 (1958) 393 (1981) 2160 567 630 915 1030 1600 2300 2610 3420 7330
2026-05-06 19:45 3.16 788 12600 (1958) 393 (1981) 2160 567 630 915 1030 1600 2300 2610 3420 7330
2026-05-06 18:45 3.16 788 12600 (1958) 393 (1981) 2160 567 630 915 1030 1600 2300 2610 3420 7330
2026-05-06 17:45 3.16 788 12600 (1958) 393 (1981) 2160 567 630 915 1030 1600 2300 2610 3420 7330
2026-05-06 16:45 3.17 795 12600 (1958) 393 (1981) 2160 567 630 915 1030 1600 2300 2610 3420 7330
2026-05-06 15:45 3.17 795 12600 (1958) 393 (1981) 2160 567 630 915 1030 1600 2300 2610 3420 7330
2026-05-06 14:45 3.17 795 12600 (1958) 393 (1981) 2160 567 630 915 1030 1600 2300 2610 3420 7330
2026-05-06 13:45 3.18 803 12600 (1958) 393 (1981) 2160 567 630 915 1030 1600 2300 2610 3420 7330
2026-05-06 12:45 3.19 810 12600 (1958) 393 (1981) 2160 567 630 915 1030 1600 2300 2610 3420 7330
2026-05-06 11:45 3.18 803 12600 (1958) 393 (1981) 2160 567 630 915 1030 1600 2300 2610 3420 7330
2026-05-06 10:45 3.18 803 12600 (1958) 393 (1981) 2160 567 630 915 1030 1600 2300 2610 3420 7330
2026-05-06 09:45 3.18 803 12600 (1958) 393 (1981) 2160 567 630 915 1030 1600 2300 2610 3420 7330
2026-05-06 08:45 3.19 810 12600 (1958) 393 (1981) 2160 567 630 915 1030 1600 2300 2610 3420 7330
2026-05-06 07:45 3.19 810 12600 (1958) 393 (1981) 2160 567 630 915 1030 1600 2300 2610 3420 7330
2026-05-06 06:45 3.19 810 12600 (1958) 393 (1981) 2160 567 630 915 1030 1600 2300 2610 3420 7330
2026-05-06 05:45 3.19 810 12600 (1958) 393 (1981) 2160 567 630 915 1030 1600 2300 2610 3420 7330
2026-05-06 04:45 3.20 818 12600 (1958) 393 (1981) 2160 567 630 915 1030 1600 2300 2610 3420 7330
2026-05-06 03:45 3.20 818 12600 (1958) 393 (1981) 2160 567 630 915 1030 1600 2300 2610 3420 7330
2026-05-06 02:45 3.21 826 12600 (1958) 393 (1981) 2160 567 630 915 1030 1600 2300 2610 3420 7330
2026-05-06 01:45 3.21 826 12600 (1958) 393 (1981) 2160 567 630 915 1030 1600 2300 2610 3420 7330
2026-05-06 00:45 3.22 833 12600 (1958) 393 (1981) 2160 567 630 915 1030 1600 2300 2610 3420 7330
2026-05-05 23:45 3.23 841 12600 (1958) 393 (1981) 2160 567 630 915 1030 1600 2300 2610 3420 7330
2026-05-05 22:45 3.23 841 13300 (1958) 391 (1981) 2180 543 647 929 1030 1590 2510 2590 4250 6420
2026-05-05 21:45 3.23 841 13300 (1958) 391 (1981) 2180 543 647 929 1030 1590 2510 2590 4250 6420
2026-05-05 20:45 3.23 841 13300 (1958) 391 (1981) 2180 543 647 929 1030 1590 2510 2590 4250 6420
2026-05-05 19:45 3.23 841 13300 (1958) 391 (1981) 2180 543 647 929 1030 1590 2510 2590 4250 6420
2026-05-05 18:45 3.20 818 13300 (1958) 391 (1981) 2180 543 647 929 1030 1590 2510 2590 4250 6420
2026-05-05 17:45 3.19 810 13300 (1958) 391 (1981) 2180 543 647 929 1030 1590 2510 2590 4250 6420
2026-05-05 16:45 3.19 810 13300 (1958) 391 (1981) 2180 543 647 929 1030 1590 2510 2590 4250 6420
2026-05-05 15:45 3.18 803 13300 (1958) 391 (1981) 2180 543 647 929 1030 1590 2510 2590 4250 6420
2026-05-05 14:45 3.18 803 13300 (1958) 391 (1981) 2180 543 647 929 1030 1590 2510 2590 4250 6420
2026-05-05 13:45 3.17 795 13300 (1958) 391 (1981) 2180 543 647 929 1030 1590 2510 2590 4250 6420
2026-05-05 12:45 3.19 810 13300 (1958) 391 (1981) 2180 543 647 929 1030 1590 2510 2590 4250 6420
2026-05-05 11:45 3.20 818 13300 (1958) 391 (1981) 2180 543 647 929 1030 1590 2510 2590 4250 6420
2026-05-05 10:45 3.20 818 13300 (1958) 391 (1981) 2180 543 647 929 1030 1590 2510 2590 4250 6420
2026-05-05 09:45 3.20 818 13300 (1958) 391 (1981) 2180 543 647 929 1030 1590 2510 2590 4250 6420
2026-05-05 08:45 3.21 826 13300 (1958) 391 (1981) 2180 543 647 929 1030 1590 2510 2590 4250 6420
2026-05-05 07:45 3.19 810 13300 (1958) 391 (1981) 2180 543 647 929 1030 1590 2510 2590 4250 6420
2026-05-05 06:45 3.18 803 13300 (1958) 391 (1981) 2180 543 647 929 1030 1590 2510 2590 4250 6420
2026-05-05 05:45 3.20 818 13300 (1958) 391 (1981) 2180 543 647 929 1030 1590 2510 2590 4250 6420
2026-05-05 04:45 3.20 818 13300 (1958) 391 (1981) 2180 543 647 929 1030 1590 2510 2590 4250 6420
2026-05-05 03:45 3.20 818 13300 (1958) 391 (1981) 2180 543 647 929 1030 1590 2510 2590 4250 6420
2026-05-05 02:45 3.20 818 13300 (1958) 391 (1981) 2180 543 647 929 1030 1590 2510 2590 4250 6420
2026-05-05 01:45 3.20 818 13300 (1958) 391 (1981) 2180 543 647 929 1030 1590 2510 2590 4250 6420
2026-05-05 00:45 3.20 818 13300 (1958) 391 (1981) 2180 543 647 929 1030 1590 2510 2590 4250 6420
2026-05-04 23:45 3.21 826 13300 (1958) 391 (1981) 2180 543 647 929 1030 1590 2510 2590 4250 6420
2026-05-04 22:45 3.21 826 10800 (2011) 380 (1981) 2280 543 677 943 1010 1660 2890 3120 4490 6990
2026-05-04 21:45 3.21 826 10800 (2011) 380 (1981) 2280 543 677 943 1010 1660 2890 3120 4490 6990
2026-05-04 20:45 3.21 826 10800 (2011) 380 (1981) 2280 543 677 943 1010 1660 2890 3120 4490 6990
2026-05-04 19:45 3.22 833 10800 (2011) 380 (1981) 2280 543 677 943 1010 1660 2890 3120 4490 6990
2026-05-04 18:45 3.22 833 10800 (2011) 380 (1981) 2280 543 677 943 1010 1660 2890 3120 4490 6990
2026-05-04 17:45 3.21 826 10800 (2011) 380 (1981) 2280 543 677 943 1010 1660 2890 3120 4490 6990
2026-05-04 16:45 3.24 848 10800 (2011) 380 (1981) 2280 543 677 943 1010 1660 2890 3120 4490 6990
2026-05-04 15:45 3.20 818 10800 (2011) 380 (1981) 2280 543 677 943 1010 1660 2890 3120 4490 6990
2026-05-04 14:45 3.23 841 10800 (2011) 380 (1981) 2280 543 677 943 1010 1660 2890 3120 4490 6990
2026-05-04 13:45 3.20 818 10800 (2011) 380 (1981) 2280 543 677 943 1010 1660 2890 3120 4490 6990
2026-05-04 12:45 3.21 826 10800 (2011) 380 (1981) 2280 543 677 943 1010 1660 2890 3120 4490 6990
2026-05-04 11:45 3.22 833 10800 (2011) 380 (1981) 2280 543 677 943 1010 1660 2890 3120 4490 6990
2026-05-04 10:45 3.22 833 10800 (2011) 380 (1981) 2280 543 677 943 1010 1660 2890 3120 4490 6990
2026-05-04 09:45 3.22 833 10800 (2011) 380 (1981) 2280 543 677 943 1010 1660 2890 3120 4490 6990
2026-05-04 08:45 3.24 848 10800 (2011) 380 (1981) 2280 543 677 943 1010 1660 2890 3120 4490 6990
2026-05-04 07:45 3.25 856 10800 (2011) 380 (1981) 2280 543 677 943 1010 1660 2890 3120 4490 6990
2026-05-04 06:45 3.25 856 10800 (2011) 380 (1981) 2280 543 677 943 1010 1660 2890 3120 4490 6990
2026-05-04 05:45 3.25 856 10800 (2011) 380 (1981) 2280 543 677 943 1010 1660 2890 3120 4490 6990
2026-05-04 04:45 3.25 856 10800 (2011) 380 (1981) 2280 543 677 943 1010 1660 2890 3120 4490 6990
2026-05-04 03:45 3.25 856 10800 (2011) 380 (1981) 2280 543 677 943 1010 1660 2890 3120 4490 6990
2026-05-04 02:45 3.25 856 10800 (2011) 380 (1981) 2280 543 677 943 1010 1660 2890 3120 4490 6990
2026-05-04 01:45 3.25 856 10800 (2011) 380 (1981) 2280 543 677 943 1010 1660 2890 3120 4490 6990
2026-05-04 00:45 3.26 863 10800 (2011) 380 (1981) 2280 543 677 943 1010 1660 2890 3120 4490 6990
2026-05-03 23:45 3.26 863 10800 (2011) 380 (1981) 2280 543 677 943 1010 1660 2890 3120 4490 6990
2026-05-03 22:45 3.26 863 22100 (2011) 382 (1981) 2420 543 713 969 1050 1690 2910 3180 4110 6220
2026-05-03 21:45 3.27 871 22100 (2011) 382 (1981) 2420 543 713 969 1050 1690 2910 3180 4110 6220
2026-05-03 20:45 3.27 871 22100 (2011) 382 (1981) 2420 543 713 969 1050 1690 2910 3180 4110 6220
2026-05-03 19:45 3.27 871 22100 (2011) 382 (1981) 2420 543 713 969 1050 1690 2910 3180 4110 6220
2026-05-03 18:45 3.27 871 22100 (2011) 382 (1981) 2420 543 713 969 1050 1690 2910 3180 4110 6220
2026-05-03 17:45 3.28 879 22100 (2011) 382 (1981) 2420 543 713 969 1050 1690 2910 3180 4110 6220
2026-05-03 16:45 3.29 886 22100 (2011) 382 (1981) 2420 543 713 969 1050 1690 2910 3180 4110 6220
2026-05-03 15:45 3.29 886 22100 (2011) 382 (1981) 2420 543 713 969 1050 1690 2910 3180 4110 6220
2026-05-03 14:45 3.26 863 22100 (2011) 382 (1981) 2420 543 713 969 1050 1690 2910 3180 4110 6220
2026-05-03 13:45 3.29 886 22100 (2011) 382 (1981) 2420 543 713 969 1050 1690 2910 3180 4110 6220
2026-05-03 12:45 3.28 879 22100 (2011) 382 (1981) 2420 543 713 969 1050 1690 2910 3180 4110 6220
2026-05-03 11:45 3.28 879 22100 (2011) 382 (1981) 2420 543 713 969 1050 1690 2910 3180 4110 6220
2026-05-03 10:45 3.28 879 22100 (2011) 382 (1981) 2420 543 713 969 1050 1690 2910 3180 4110 6220
2026-05-03 09:45 3.29 886 22100 (2011) 382 (1981) 2420 543 713 969 1050 1690 2910 3180 4110 6220
2026-05-03 08:45 3.30 894 22100 (2011) 382 (1981) 2420 543 713 969 1050 1690 2910 3180 4110 6220
2026-05-03 07:45 3.30 894 22100 (2011) 382 (1981) 2420 543 713 969 1050 1690 2910 3180 4110 6220
2026-05-03 06:45 3.30 894 22100 (2011) 382 (1981) 2420 543 713 969 1050 1690 2910 3180 4110 6220
2026-05-03 05:45 3.31 901 22100 (2011) 382 (1981) 2420 543 713 969 1050 1690 2910 3180 4110 6220
2026-05-03 04:45 3.31 901 22100 (2011) 382 (1981) 2420 543 713 969 1050 1690 2910 3180 4110 6220
2026-05-03 03:45 3.31 901 22100 (2011) 382 (1981) 2420 543 713 969 1050 1690 2910 3180 4110 6220
2026-05-03 02:45 3.32 909 22100 (2011) 382 (1981) 2420 543 713 969 1050 1690 2910 3180 4110 6220
2026-05-03 01:45 3.32 909 22100 (2011) 382 (1981) 2420 543 713 969 1050 1690 2910 3180 4110 6220
2026-05-03 00:45 3.32 909 22100 (2011) 382 (1981) 2420 543 713 969 1050 1690 2910 3180 4110 6220
2026-05-02 23:45 3.33 917 22100 (2011) 382 (1981) 2420 543 713 969 1050 1690 2910 3180 4110 6220
2026-05-02 22:45 3.33 917 25800 (2011) 387 (1981) 2460 564 731 983 1040 1620 2720 3060 3960 6930
2026-05-02 21:45 3.33 917 25800 (2011) 387 (1981) 2460 564 731 983 1040 1620 2720 3060 3960 6930
2026-05-02 20:45 3.33 917 25800 (2011) 387 (1981) 2460 564 731 983 1040 1620 2720 3060 3960 6930
2026-05-02 19:45 3.34 924 25800 (2011) 387 (1981) 2460 564 731 983 1040 1620 2720 3060 3960 6930
2026-05-02 18:45 3.35 932 25800 (2011) 387 (1981) 2460 564 731 983 1040 1620 2720 3060 3960 6930
2026-05-02 17:45 3.35 932 25800 (2011) 387 (1981) 2460 564 731 983 1040 1620 2720 3060 3960 6930
2026-05-02 16:45 3.36 939 25800 (2011) 387 (1981) 2460 564 731 983 1040 1620 2720 3060 3960 6930
2026-05-02 15:45 3.36 939 25800 (2011) 387 (1981) 2460 564 731 983 1040 1620 2720 3060 3960 6930
2026-05-02 14:45 3.37 947 25800 (2011) 387 (1981) 2460 564 731 983 1040 1620 2720 3060 3960 6930
2026-05-02 13:45 3.37 947 25800 (2011) 387 (1981) 2460 564 731 983 1040 1620 2720 3060 3960 6930
2026-05-02 12:45 3.34 924 25800 (2011) 387 (1981) 2460 564 731 983 1040 1620 2720 3060 3960 6930
2026-05-02 11:45 3.37 947 25800 (2011) 387 (1981) 2460 564 731 983 1040 1620 2720 3060 3960 6930
2026-05-02 10:45 3.37 947 25800 (2011) 387 (1981) 2460 564 731 983 1040 1620 2720 3060 3960 6930
2026-05-02 09:45 3.38 955 25800 (2011) 387 (1981) 2460 564 731 983 1040 1620 2720 3060 3960 6930
2026-05-02 08:45 3.38 955 25800 (2011) 387 (1981) 2460 564 731 983 1040 1620 2720 3060 3960 6930
2026-05-02 07:45 3.38 955 25800 (2011) 387 (1981) 2460 564 731 983 1040 1620 2720 3060 3960 6930
2026-05-02 06:45 3.38 955 25800 (2011) 387 (1981) 2460 564 731 983 1040 1620 2720 3060 3960 6930
2026-05-02 05:45 3.38 955 25800 (2011) 387 (1981) 2460 564 731 983 1040 1620 2720 3060 3960 6930
2026-05-02 04:45 3.39 962 25800 (2011) 387 (1981) 2460 564 731 983 1040 1620 2720 3060 3960 6930
2026-05-02 03:45 3.39 962 25800 (2011) 387 (1981) 2460 564 731 983 1040 1620 2720 3060 3960 6930
2026-05-02 02:45 3.40 970 25800 (2011) 387 (1981) 2460 564 731 983 1040 1620 2720 3060 3960 6930
2026-05-02 01:45 3.40 970 25800 (2011) 387 (1981) 2460 564 731 983 1040 1620 2720 3060 3960 6930
2026-05-02 00:45 3.40 970 25800 (2011) 387 (1981) 2460 564 731 983 1040 1620 2720 3060 3960 6930
2026-05-01 23:45 3.40 970 25800 (2011) 387 (1981) 2460 564 731 983 1040 1620 2720 3060 3960 6930
2026-05-01 22:45 3.41 978 65000 (2017) 394 (1981) 2710 554 719 989 1020 1630 2350 2650 3910 5390
2026-05-01 21:45 3.41 978 65000 (2017) 394 (1981) 2710 554 719 989 1020 1630 2350 2650 3910 5390
2026-05-01 20:45 3.42 985 65000 (2017) 394 (1981) 2710 554 719 989 1020 1630 2350 2650 3910 5390
2026-05-01 19:45 3.42 985 65000 (2017) 394 (1981) 2710 554 719 989 1020 1630 2350 2650 3910 5390
2026-05-01 18:45 3.43 993 65000 (2017) 394 (1981) 2710 554 719 989 1020 1630 2350 2650 3910 5390
2026-05-01 17:45 3.44 1000 65000 (2017) 394 (1981) 2710 554 719 989 1020 1630 2350 2650 3910 5390
2026-05-01 16:45 3.44 1000 65000 (2017) 394 (1981) 2710 554 719 989 1020 1630 2350 2650 3910 5390
2026-05-01 15:45 3.45 1010 65000 (2017) 394 (1981) 2710 554 719 989 1020 1630 2350 2650 3910 5390
2026-05-01 14:45 3.45 1010 65000 (2017) 394 (1981) 2710 554 719 989 1020 1630 2350 2650 3910 5390
2026-05-01 13:45 3.44 1000 65000 (2017) 394 (1981) 2710 554 719 989 1020 1630 2350 2650 3910 5390
2026-05-01 12:45 3.46 1020 65000 (2017) 394 (1981) 2710 554 719 989 1020 1630 2350 2650 3910 5390
2026-05-01 11:45 3.46 1020 65000 (2017) 394 (1981) 2710 554 719 989 1020 1630 2350 2650 3910 5390
2026-05-01 10:45 3.46 1020 65000 (2017) 394 (1981) 2710 554 719 989 1020 1630 2350 2650 3910 5390
2026-05-01 09:45 3.46 1020 65000 (2017) 394 (1981) 2710 554 719 989 1020 1630 2350 2650 3910 5390
2026-05-01 08:45 3.46 1020 65000 (2017) 394 (1981) 2710 554 719 989 1020 1630 2350 2650 3910 5390
2026-05-01 07:45 3.46 1020 65000 (2017) 394 (1981) 2710 554 719 989 1020 1630 2350 2650 3910 5390
2026-05-01 06:45 3.47 1020 65000 (2017) 394 (1981) 2710 554 719 989 1020 1630 2350 2650 3910 5390
2026-05-01 05:45 3.47 1020 65000 (2017) 394 (1981) 2710 554 719 989 1020 1630 2350 2650 3910 5390
2026-05-01 04:45 3.47 1020 65000 (2017) 394 (1981) 2710 554 719 989 1020 1630 2350 2650 3910 5390
2026-05-01 03:45 3.48 1030 65000 (2017) 394 (1981) 2710 554 719 989 1020 1630 2350 2650 3910 5390
2026-05-01 02:45 3.48 1030 65000 (2017) 394 (1981) 2710 554 719 989 1020 1630 2350 2650 3910 5390
2026-05-01 01:45 3.48 1030 65000 (2017) 394 (1981) 2710 554 719 989 1020 1630 2350 2650 3910 5390
2026-05-01 00:45 3.48 1030 65000 (2017) 394 (1981) 2710 554 719 989 1020 1630 2350 2650 3910 5390
2026-04-30 23:45 3.49 1040 65000 (2017) 394 (1981) 2710 554 719 989 1020 1630 2350 2650 3910 5390
2026-04-30 22:45 3.49 1040 60100 (2017) 406 (1981) 2550 557 701 1010 1050 1620 2180 2380 2880 6240
2026-04-30 21:45 3.49 1040 60100 (2017) 406 (1981) 2550 557 701 1010 1050 1620 2180 2380 2880 6240
2026-04-30 20:45 3.49 1040 60100 (2017) 406 (1981) 2550 557 701 1010 1050 1620 2180 2380 2880 6240
2026-04-30 19:45 3.50 1050 60100 (2017) 406 (1981) 2550 557 701 1010 1050 1620 2180 2380 2880 6240
2026-04-30 18:45 3.50 1050 60100 (2017) 406 (1981) 2550 557 701 1010 1050 1620 2180 2380 2880 6240
2026-04-30 17:45 3.51 1050 60100 (2017) 406 (1981) 2550 557 701 1010 1050 1620 2180 2380 2880 6240
2026-04-30 16:45 3.51 1050 60100 (2017) 406 (1981) 2550 557 701 1010 1050 1620 2180 2380 2880 6240
2026-04-30 15:45 3.50 1050 60100 (2017) 406 (1981) 2550 557 701 1010 1050 1620 2180 2380 2880 6240
2026-04-30 14:45 3.52 1060 60100 (2017) 406 (1981) 2550 557 701 1010 1050 1620 2180 2380 2880 6240
2026-04-30 13:45 3.52 1060 60100 (2017) 406 (1981) 2550 557 701 1010 1050 1620 2180 2380 2880 6240
2026-04-30 12:45 3.52 1060 60100 (2017) 406 (1981) 2550 557 701 1010 1050 1620 2180 2380 2880 6240
2026-04-30 11:45 3.52 1060 60100 (2017) 406 (1981) 2550 557 701 1010 1050 1620 2180 2380 2880 6240
2026-04-30 10:45 3.52 1060 60100 (2017) 406 (1981) 2550 557 701 1010 1050 1620 2180 2380 2880 6240
2026-04-30 09:45 3.51 1050 60100 (2017) 406 (1981) 2550 557 701 1010 1050 1620 2180 2380 2880 6240
2026-04-30 08:45 3.51 1050 60100 (2017) 406 (1981) 2550 557 701 1010 1050 1620 2180 2380 2880 6240
2026-04-30 07:45 3.51 1050 60100 (2017) 406 (1981) 2550 557 701 1010 1050 1620 2180 2380 2880 6240
2026-04-30 06:45 3.51 1050 60100 (2017) 406 (1981) 2550 557 701 1010 1050 1620 2180 2380 2880 6240
2026-04-30 05:45 3.51 1050 60100 (2017) 406 (1981) 2550 557 701 1010 1050 1620 2180 2380 2880 6240
2026-04-30 04:45 3.51 1050 60100 (2017) 406 (1981) 2550 557 701 1010 1050 1620 2180 2380 2880 6240
2026-04-30 03:45 3.51 1050 60100 (2017) 406 (1981) 2550 557 701 1010 1050 1620 2180 2380 2880 6240
2026-04-30 02:45 3.51 1050 60100 (2017) 406 (1981) 2550 557 701 1010 1050 1620 2180 2380 2880 6240
2026-04-30 01:45 3.51 1050 60100 (2017) 406 (1981) 2550 557 701 1010 1050 1620 2180 2380 2880 6240
2026-04-30 00:45 3.51 1050 60100 (2017) 406 (1981) 2550 557 701 1010 1050 1620 2180 2380 2880 6240
2026-04-29 23:45 3.50 1050 60100 (2017) 406 (1981) 2550 557 701 1010 1050 1620 2180 2380 2880 6240
2026-04-29 22:45 3.50 1050 11000 (2021) 414 (1981) 1990 557 722 997 1060 1560 2150 2300 3080 5440
2026-04-29 21:45 3.50 1050 11000 (2021) 414 (1981) 1990 557 722 997 1060 1560 2150 2300 3080 5440
2026-04-29 20:45 3.50 1050 11000 (2021) 414 (1981) 1990 557 722 997 1060 1560 2150 2300 3080 5440
2026-04-29 19:45 3.50 1050 11000 (2021) 414 (1981) 1990 557 722 997 1060 1560 2150 2300 3080 5440
2026-04-29 18:45 3.50 1050 11000 (2021) 414 (1981) 1990 557 722 997 1060 1560 2150 2300 3080 5440
2026-04-29 17:45 3.50 1050 11000 (2021) 414 (1981) 1990 557 722 997 1060 1560 2150 2300 3080 5440
2026-04-29 16:45 3.50 1050 11000 (2021) 414 (1981) 1990 557 722 997 1060 1560 2150 2300 3080 5440
2026-04-29 15:45 3.50 1050 11000 (2021) 414 (1981) 1990 557 722 997 1060 1560 2150 2300 3080 5440
2026-04-29 14:45 3.49 1040 11000 (2021) 414 (1981) 1990 557 722 997 1060 1560 2150 2300 3080 5440
2026-04-29 13:45 3.51 1050 11000 (2021) 414 (1981) 1990 557 722 997 1060 1560 2150 2300 3080 5440
2026-04-29 12:45 3.51 1050 11000 (2021) 414 (1981) 1990 557 722 997 1060 1560 2150 2300 3080 5440
2026-04-29 11:45 3.49 1040 11000 (2021) 414 (1981) 1990 557 722 997 1060 1560 2150 2300 3080 5440
2026-04-29 10:45 3.50 1050 11000 (2021) 414 (1981) 1990 557 722 997 1060 1560 2150 2300 3080 5440
2026-04-29 09:45 3.50 1050 11000 (2021) 414 (1981) 1990 557 722 997 1060 1560 2150 2300 3080 5440
2026-04-29 08:45 3.50 1050 11000 (2021) 414 (1981) 1990 557 722 997 1060 1560 2150 2300 3080 5440
2026-04-29 07:45 3.50 1050 11000 (2021) 414 (1981) 1990 557 722 997 1060 1560 2150 2300 3080 5440
2026-04-29 06:45 3.51 1050 11000 (2021) 414 (1981) 1990 557 722 997 1060 1560 2150 2300 3080 5440
2026-04-29 05:45 3.50 1050 11000 (2021) 414 (1981) 1990 557 722 997 1060 1560 2150 2300 3080 5440
2026-04-29 04:45 3.50 1050 11000 (2021) 414 (1981) 1990 557 722 997 1060 1560 2150 2300 3080 5440
2026-04-29 03:45 3.50 1050 11000 (2021) 414 (1981) 1990 557 722 997 1060 1560 2150 2300 3080 5440
2026-04-29 02:45 3.50 1050 11000 (2021) 414 (1981) 1990 557 722 997 1060 1560 2150 2300 3080 5440
2026-04-29 01:45 3.49 1040 11000 (2021) 414 (1981) 1990 557 722 997 1060 1560 2150 2300 3080 5440
2026-04-29 00:45 3.49 1040 11000 (2021) 414 (1981) 1990 557 722 997 1060 1560 2150 2300 3080 5440
2026-04-28 23:45 3.49 1040 11000 (2021) 414 (1981) 1990 557 722 997 1060 1560 2150 2300 3080 5440
2026-04-28 22:45 3.49 1040 19000 (2014) 418 (1981) 2230 544 690 1020 1090 1560 2290 2500 3220 7030
2026-04-28 21:45 3.49 1040 19000 (2014) 418 (1981) 2230 544 690 1020 1090 1560 2290 2500 3220 7030
2026-04-28 20:45 3.48 1030 19000 (2014) 418 (1981) 2230 544 690 1020 1090 1560 2290 2500 3220 7030
2026-04-28 19:45 3.49 1040 19000 (2014) 418 (1981) 2230 544 690 1020 1090 1560 2290 2500 3220 7030
2026-04-28 18:45 3.49 1040 19000 (2014) 418 (1981) 2230 544 690 1020 1090 1560 2290 2500 3220 7030
2026-04-28 17:45 3.50 1050 19000 (2014) 418 (1981) 2230 544 690 1020 1090 1560 2290 2500 3220 7030
2026-04-28 16:45 3.50 1050 19000 (2014) 418 (1981) 2230 544 690 1020 1090 1560 2290 2500 3220 7030
2026-04-28 15:45 3.51 1050 19000 (2014) 418 (1981) 2230 544 690 1020 1090 1560 2290 2500 3220 7030
2026-04-28 14:45 3.50 1050 19000 (2014) 418 (1981) 2230 544 690 1020 1090 1560 2290 2500 3220 7030
2026-04-28 13:45 3.50 1050 19000 (2014) 418 (1981) 2230 544 690 1020 1090 1560 2290 2500 3220 7030
2026-04-28 12:45 3.50 1050 19000 (2014) 418 (1981) 2230 544 690 1020 1090 1560 2290 2500 3220 7030
2026-04-28 11:45 3.52 1060 19000 (2014) 418 (1981) 2230 544 690 1020 1090 1560 2290 2500 3220 7030
2026-04-28 10:45 3.55 1080 19000 (2014) 418 (1981) 2230 544 690 1020 1090 1560 2290 2500 3220 7030
2026-04-28 09:45 3.58 1110 19000 (2014) 418 (1981) 2230 544 690 1020 1090 1560 2290 2500 3220 7030
2026-04-28 08:45 3.62 1140 19000 (2014) 418 (1981) 2230 544 690 1020 1090 1560 2290 2500 3220 7030
2026-04-28 07:45 3.63 1150 19000 (2014) 418 (1981) 2230 544 690 1020 1090 1560 2290 2500 3220 7030
2026-04-28 06:45 3.60 1120 19000 (2014) 418 (1981) 2230 544 690 1020 1090 1560 2290 2500 3220 7030
2026-04-28 05:45 3.53 1070 19000 (2014) 418 (1981) 2230 544 690 1020 1090 1560 2290 2500 3220 7030
2026-04-28 04:45 3.53 1070 19000 (2014) 418 (1981) 2230 544 690 1020 1090 1560 2290 2500 3220 7030
2026-04-28 03:45 3.56 1090 19000 (2014) 418 (1981) 2230 544 690 1020 1090 1560 2290 2500 3220 7030
2026-04-28 02:45 3.56 1090 19000 (2014) 418 (1981) 2230 544 690 1020 1090 1560 2290 2500 3220 7030
2026-04-28 01:45 3.54 1080 19000 (2014) 418 (1981) 2230 544 690 1020 1090 1560 2290 2500 3220 7030
2026-04-28 00:45 3.52 1060 19000 (2014) 418 (1981) 2230 544 690 1020 1090 1560 2290 2500 3220 7030
2026-04-27 23:45 3.48 1030 19000 (2014) 418 (1981) 2230 544 690 1020 1090 1560 2290 2500 3220 7030
2026-04-27 22:45 3.34 924 33600 (2011) 429 (1981) 2210 565 744 1020 1120 1540 2210 2520 3490 4850
2026-04-27 21:45 3.25 856 33600 (2011) 429 (1981) 2210 565 744 1020 1120 1540 2210 2520 3490 4850
2026-04-27 20:45 3.22 833 33600 (2011) 429 (1981) 2210 565 744 1020 1120 1540 2210 2520 3490 4850
2026-04-27 19:45 3.23 841 33600 (2011) 429 (1981) 2210 565 744 1020 1120 1540 2210 2520 3490 4850
2026-04-27 18:45 3.27 871 33600 (2011) 429 (1981) 2210 565 744 1020 1120 1540 2210 2520 3490 4850
2026-04-27 17:45 3.25 856 33600 (2011) 429 (1981) 2210 565 744 1020 1120 1540 2210 2520 3490 4850
2026-04-27 16:45 3.27 871 33600 (2011) 429 (1981) 2210 565 744 1020 1120 1540 2210 2520 3490 4850
2026-04-27 15:45 3.26 863 33600 (2011) 429 (1981) 2210 565 744 1020 1120 1540 2210 2520 3490 4850
2026-04-27 14:45 3.27 871 33600 (2011) 429 (1981) 2210 565 744 1020 1120 1540 2210 2520 3490 4850
2026-04-27 13:45 3.27 871 33600 (2011) 429 (1981) 2210 565 744 1020 1120 1540 2210 2520 3490 4850
2026-04-27 12:45 3.27 871 33600 (2011) 429 (1981) 2210 565 744 1020 1120 1540 2210 2520 3490 4850
2026-04-27 11:45 3.27 871 33600 (2011) 429 (1981) 2210 565 744 1020 1120 1540 2210 2520 3490 4850
2026-04-27 10:45 3.28 879 33600 (2011) 429 (1981) 2210 565 744 1020 1120 1540 2210 2520 3490 4850
2026-04-27 09:45 3.30 894 33600 (2011) 429 (1981) 2210 565 744 1020 1120 1540 2210 2520 3490 4850
2026-04-27 08:45 3.32 909 33600 (2011) 429 (1981) 2210 565 744 1020 1120 1540 2210 2520 3490 4850
2026-04-27 07:45 3.29 886 33600 (2011) 429 (1981) 2210 565 744 1020 1120 1540 2210 2520 3490 4850
2026-04-27 06:45 3.32 909 33600 (2011) 429 (1981) 2210 565 744 1020 1120 1540 2210 2520 3490 4850
2026-04-27 05:45 3.32 909 33600 (2011) 429 (1981) 2210 565 744 1020 1120 1540 2210 2520 3490 4850
2026-04-27 04:45 3.33 917 33600 (2011) 429 (1981) 2210 565 744 1020 1120 1540 2210 2520 3490 4850
2026-04-27 03:45 3.33 917 33600 (2011) 429 (1981) 2210 565 744 1020 1120 1540 2210 2520 3490 4850
2026-04-27 02:45 3.33 917 33600 (2011) 429 (1981) 2210 565 744 1020 1120 1540 2210 2520 3490 4850
2026-04-27 01:45 3.34 924 33600 (2011) 429 (1981) 2210 565 744 1020 1120 1540 2210 2520 3490 4850
2026-04-27 00:45 3.34 924 33600 (2011) 429 (1981) 2210 565 744 1020 1120 1540 2210 2520 3490 4850
2026-04-26 23:45 3.35 932 33600 (2011) 429 (1981) 2210 565 744 1020 1120 1540 2210 2520 3490 4850
2026-04-26 22:45 3.35 932 54700 (2011) 443 (1981) 2560 579 743 1060 1160 1560 2220 2560 4010 5290
2026-04-26 21:45 3.36 939 54700 (2011) 443 (1981) 2560 579 743 1060 1160 1560 2220 2560 4010 5290
2026-04-26 20:45 3.37 947 54700 (2011) 443 (1981) 2560 579 743 1060 1160 1560 2220 2560 4010 5290
2026-04-26 19:45 3.37 947 54700 (2011) 443 (1981) 2560 579 743 1060 1160 1560 2220 2560 4010 5290
2026-04-26 18:45 3.38 955 54700 (2011) 443 (1981) 2560 579 743 1060 1160 1560 2220 2560 4010 5290
2026-04-26 17:45 3.39 962 54700 (2011) 443 (1981) 2560 579 743 1060 1160 1560 2220 2560 4010 5290
2026-04-26 16:45 3.40 970 54700 (2011) 443 (1981) 2560 579 743 1060 1160 1560 2220 2560 4010 5290
2026-04-26 15:45 3.39 962 54700 (2011) 443 (1981) 2560 579 743 1060 1160 1560 2220 2560 4010 5290
2026-04-26 14:45 3.40 970 54700 (2011) 443 (1981) 2560 579 743 1060 1160 1560 2220 2560 4010 5290
2026-04-26 13:45 3.41 978 54700 (2011) 443 (1981) 2560 579 743 1060 1160 1560 2220 2560 4010 5290
2026-04-26 12:45 3.42 985 54700 (2011) 443 (1981) 2560 579 743 1060 1160 1560 2220 2560 4010 5290
2026-04-26 11:45 3.42 985 54700 (2011) 443 (1981) 2560 579 743 1060 1160 1560 2220 2560 4010 5290
2026-04-26 10:45 3.44 1000 54700 (2011) 443 (1981) 2560 579 743 1060 1160 1560 2220 2560 4010 5290
2026-04-26 09:45 3.44 1000 54700 (2011) 443 (1981) 2560 579 743 1060 1160 1560 2220 2560 4010 5290
2026-04-26 08:45 3.44 1000 54700 (2011) 443 (1981) 2560 579 743 1060 1160 1560 2220 2560 4010 5290
2026-04-26 07:45 3.45 1010 54700 (2011) 443 (1981) 2560 579 743 1060 1160 1560 2220 2560 4010 5290
2026-04-26 06:45 3.45 1010 54700 (2011) 443 (1981) 2560 579 743 1060 1160 1560 2220 2560 4010 5290
2026-04-26 05:45 3.46 1020 54700 (2011) 443 (1981) 2560 579 743 1060 1160 1560 2220 2560 4010 5290
2026-04-26 04:45 3.46 1020 54700 (2011) 443 (1981) 2560 579 743 1060 1160 1560 2220 2560 4010 5290
2026-04-26 03:45 3.47 1020 54700 (2011) 443 (1981) 2560 579 743 1060 1160 1560 2220 2560 4010 5290
2026-04-26 02:45 3.48 1030 54700 (2011) 443 (1981) 2560 579 743 1060 1160 1560 2220 2560 4010 5290
2026-04-26 01:45 3.48 1030 54700 (2011) 443 (1981) 2560 579 743 1060 1160 1560 2220 2560 4010 5290
2026-04-26 00:45 3.49 1040 54700 (2011) 443 (1981) 2560 579 743 1060 1160 1560 2220 2560 4010 5290
2026-04-25 23:45 3.50 1050 54700 (2011) 443 (1981) 2560 579 743 1060 1160 1560 2220 2560 4010 5290
2026-04-25 22:45 3.50 1050 42100 (2011) 450 (1963) 2570 580 690 1060 1120 1560 2350 2710 3410 8700
2026-04-25 21:45 3.51 1050 42100 (2011) 450 (1963) 2570 580 690 1060 1120 1560 2350 2710 3410 8700
2026-04-25 20:45 3.52 1060 42100 (2011) 450 (1963) 2570 580 690 1060 1120 1560 2350 2710 3410 8700
2026-04-25 19:45 3.52 1060 42100 (2011) 450 (1963) 2570 580 690 1060 1120 1560 2350 2710 3410 8700
2026-04-25 18:45 3.53 1070 42100 (2011) 450 (1963) 2570 580 690 1060 1120 1560 2350 2710 3410 8700
2026-04-25 17:45 3.53 1070 42100 (2011) 450 (1963) 2570 580 690 1060 1120 1560 2350 2710 3410 8700
2026-04-25 16:45 3.55 1080 42100 (2011) 450 (1963) 2570 580 690 1060 1120 1560 2350 2710 3410 8700
2026-04-25 15:45 3.55 1080 42100 (2011) 450 (1963) 2570 580 690 1060 1120 1560 2350 2710 3410 8700
2026-04-25 14:45 3.54 1080 42100 (2011) 450 (1963) 2570 580 690 1060 1120 1560 2350 2710 3410 8700
2026-04-25 13:45 3.55 1080 42100 (2011) 450 (1963) 2570 580 690 1060 1120 1560 2350 2710 3410 8700
2026-04-25 12:45 3.54 1080 42100 (2011) 450 (1963) 2570 580 690 1060 1120 1560 2350 2710 3410 8700
2026-04-25 11:45 3.52 1060 42100 (2011) 450 (1963) 2570 580 690 1060 1120 1560 2350 2710 3410 8700
2026-04-25 10:45 3.52 1060 42100 (2011) 450 (1963) 2570 580 690 1060 1120 1560 2350 2710 3410 8700
2026-04-25 09:45 3.49 1040 42100 (2011) 450 (1963) 2570 580 690 1060 1120 1560 2350 2710 3410 8700
2026-04-25 08:45 3.46 1020 42100 (2011) 450 (1963) 2570 580 690 1060 1120 1560 2350 2710 3410 8700
2026-04-25 07:45 3.43 993 42100 (2011) 450 (1963) 2570 580 690 1060 1120 1560 2350 2710 3410 8700
2026-04-25 06:45 3.40 970 42100 (2011) 450 (1963) 2570 580 690 1060 1120 1560 2350 2710 3410 8700
2026-04-25 05:45 3.37 947 42100 (2011) 450 (1963) 2570 580 690 1060 1120 1560 2350 2710 3410 8700
2026-04-25 04:45 3.35 932 42100 (2011) 450 (1963) 2570 580 690 1060 1120 1560 2350 2710 3410 8700
2026-04-25 03:45 3.32 909 42100 (2011) 450 (1963) 2570 580 690 1060 1120 1560 2350 2710 3410 8700
2026-04-25 02:45 3.28 879 42100 (2011) 450 (1963) 2570 580 690 1060 1120 1560 2350 2710 3410 8700
2026-04-25 01:45 3.23 841 42100 (2011) 450 (1963) 2570 580 690 1060 1120 1560 2350 2710 3410 8700
2026-04-25 00:45 3.18 803 42100 (2011) 450 (1963) 2570 580 690 1060 1120 1560 2350 2710 3410 8700
2026-04-24 23:45 3.13 765 42100 (2011) 450 (1963) 2570 580 690 1060 1120 1560 2350 2710 3410 8700
2026-04-24 22:45 3.10 742 18100 (1973) 450 (1963) 2390 604 726 1060 1120 1530 2430 2760 3930 6990
2026-04-24 21:45 3.08 727 18100 (1973) 450 (1963) 2390 604 726 1060 1120 1530 2430 2760 3930 6990
2026-04-24 20:45 3.07 720 18100 (1973) 450 (1963) 2390 604 726 1060 1120 1530 2430 2760 3930 6990
2026-04-24 19:45 3.06 712 18100 (1973) 450 (1963) 2390 604 726 1060 1120 1530 2430 2760 3930 6990
2026-04-24 18:45 3.06 712 18100 (1973) 450 (1963) 2390 604 726 1060 1120 1530 2430 2760 3930 6990
2026-04-24 17:45 3.06 712 18100 (1973) 450 (1963) 2390 604 726 1060 1120 1530 2430 2760 3930 6990
2026-04-24 16:45 3.05 705 18100 (1973) 450 (1963) 2390 604 726 1060 1120 1530 2430 2760 3930 6990
2026-04-24 15:45 3.05 705 18100 (1973) 450 (1963) 2390 604 726 1060 1120 1530 2430 2760 3930 6990
2026-04-24 14:45 3.06 712 18100 (1973) 450 (1963) 2390 604 726 1060 1120 1530 2430 2760 3930 6990
2026-04-24 13:45 3.06 712 18100 (1973) 450 (1963) 2390 604 726 1060 1120 1530 2430 2760 3930 6990
2026-04-24 12:45 3.07 720 18100 (1973) 450 (1963) 2390 604 726 1060 1120 1530 2430 2760 3930 6990
2026-04-24 11:45 3.04 697 18100 (1973) 450 (1963) 2390 604 726 1060 1120 1530 2430 2760 3930 6990
2026-04-24 10:45 3.01 675 18100 (1973) 450 (1963) 2390 604 726 1060 1120 1530 2430 2760 3930 6990
2026-04-24 09:45 3.02 682 18100 (1973) 450 (1963) 2390 604 726 1060 1120 1530 2430 2760 3930 6990
2026-04-24 08:45 2.99 660 18100 (1973) 450 (1963) 2390 604 726 1060 1120 1530 2430 2760 3930 6990
2026-04-24 07:45 2.94 622 18100 (1973) 450 (1963) 2390 604 726 1060 1120 1530 2430 2760 3930 6990
2026-04-24 06:45 2.97 644 18100 (1973) 450 (1963) 2390 604 726 1060 1120 1530 2430 2760 3930 6990
2026-04-24 05:45 2.97 644 18100 (1973) 450 (1963) 2390 604 726 1060 1120 1530 2430 2760 3930 6990
2026-04-24 04:45 2.97 644 18100 (1973) 450 (1963) 2390 604 726 1060 1120 1530 2430 2760 3930 6990
2026-04-24 03:45 2.97 644 18100 (1973) 450 (1963) 2390 604 726 1060 1120 1530 2430 2760 3930 6990
2026-04-24 02:45 2.97 644 18100 (1973) 450 (1963) 2390 604 726 1060 1120 1530 2430 2760 3930 6990
2026-04-24 01:45 2.98 652 18100 (1973) 450 (1963) 2390 604 726 1060 1120 1530 2430 2760 3930 6990
2026-04-24 00:45 2.98 652 18100 (1973) 450 (1963) 2390 604 726 1060 1120 1530 2430 2760 3930 6990
2026-04-23 23:45 2.97 644 18100 (1973) 450 (1963) 2390 604 726 1060 1120 1530 2430 2760 3930 6990
2026-04-23 22:45 2.98 652 29100 (1973) 461 (1963) 2390 601 697 1010 1120 1470 2540 2730 3650 7540
2026-04-23 21:45 2.98 652 29100 (1973) 461 (1963) 2390 601 697 1010 1120 1470 2540 2730 3650 7540
2026-04-23 20:45 2.98 652 29100 (1973) 461 (1963) 2390 601 697 1010 1120 1470 2540 2730 3650 7540
2026-04-23 19:45 2.98 652 29100 (1973) 461 (1963) 2390 601 697 1010 1120 1470 2540 2730 3650 7540
2026-04-23 18:45 2.98 652 29100 (1973) 461 (1963) 2390 601 697 1010 1120 1470 2540 2730 3650 7540
2026-04-23 17:45 2.99 660 29100 (1973) 461 (1963) 2390 601 697 1010 1120 1470 2540 2730 3650 7540
2026-04-23 16:45 2.97 644 29100 (1973) 461 (1963) 2390 601 697 1010 1120 1470 2540 2730 3650 7540
2026-04-23 15:45 2.97 644 29100 (1973) 461 (1963) 2390 601 697 1010 1120 1470 2540 2730 3650 7540
2026-04-23 14:45 3.00 667 29100 (1973) 461 (1963) 2390 601 697 1010 1120 1470 2540 2730 3650 7540
2026-04-23 13:45 2.98 652 29100 (1973) 461 (1963) 2390 601 697 1010 1120 1470 2540 2730 3650 7540
2026-04-23 12:45 2.96 637 29100 (1973) 461 (1963) 2390 601 697 1010 1120 1470 2540 2730 3650 7540
2026-04-23 11:45 3.00 667 29100 (1973) 461 (1963) 2390 601 697 1010 1120 1470 2540 2730 3650 7540
2026-04-23 10:45 2.96 637 29100 (1973) 461 (1963) 2390 601 697 1010 1120 1470 2540 2730 3650 7540
2026-04-23 09:45 2.99 660 29100 (1973) 461 (1963) 2390 601 697 1010 1120 1470 2540 2730 3650 7540
2026-04-23 08:45 2.99 660 29100 (1973) 461 (1963) 2390 601 697 1010 1120 1470 2540 2730 3650 7540
2026-04-23 07:45 2.98 652 29100 (1973) 461 (1963) 2390 601 697 1010 1120 1470 2540 2730 3650 7540
2026-04-23 06:45 2.99 660 29100 (1973) 461 (1963) 2390 601 697 1010 1120 1470 2540 2730 3650 7540
2026-04-23 05:45 3.00 667 29100 (1973) 461 (1963) 2390 601 697 1010 1120 1470 2540 2730 3650 7540
2026-04-23 04:45 3.00 667 29100 (1973) 461 (1963) 2390 601 697 1010 1120 1470 2540 2730 3650 7540
2026-04-23 03:45 3.00 667 29100 (1973) 461 (1963) 2390 601 697 1010 1120 1470 2540 2730 3650 7540
2026-04-23 02:45 3.00 667 29100 (1973) 461 (1963) 2390 601 697 1010 1120 1470 2540 2730 3650 7540
2026-04-23 01:45 3.00 667 29100 (1973) 461 (1963) 2390 601 697 1010 1120 1470 2540 2730 3650 7540
2026-04-23 00:45 3.00 667 29100 (1973) 461 (1963) 2390 601 697 1010 1120 1470 2540 2730 3650 7540
2026-04-22 23:45 3.00 667 29100 (1973) 461 (1963) 2390 601 697 1010 1120 1470 2540 2730 3650 7540
2026-04-22 22:45 3.00 667 9030 (1973) 476 (1963) 1960 607 697 974 1130 1460 2400 2640 3750 5240
2026-04-22 21:45 3.01 675 9030 (1973) 476 (1963) 1960 607 697 974 1130 1460 2400 2640 3750 5240
2026-04-22 20:45 3.01 675 9030 (1973) 476 (1963) 1960 607 697 974 1130 1460 2400 2640 3750 5240
2026-04-22 19:45 3.01 675 9030 (1973) 476 (1963) 1960 607 697 974 1130 1460 2400 2640 3750 5240
2026-04-22 18:45 3.02 682 9030 (1973) 476 (1963) 1960 607 697 974 1130 1460 2400 2640 3750 5240
2026-04-22 17:45 3.02 682 9030 (1973) 476 (1963) 1960 607 697 974 1130 1460 2400 2640 3750 5240
2026-04-22 16:45 3.03 690 9030 (1973) 476 (1963) 1960 607 697 974 1130 1460 2400 2640 3750 5240
2026-04-22 15:45 3.00 667 9030 (1973) 476 (1963) 1960 607 697 974 1130 1460 2400 2640 3750 5240
2026-04-22 14:45 3.00 667 9030 (1973) 476 (1963) 1960 607 697 974 1130 1460 2400 2640 3750 5240
2026-04-22 13:45 3.00 667 9030 (1973) 476 (1963) 1960 607 697 974 1130 1460 2400 2640 3750 5240
2026-04-22 12:45 2.99 660 9030 (1973) 476 (1963) 1960 607 697 974 1130 1460 2400 2640 3750 5240
2026-04-22 11:45 3.00 667 9030 (1973) 476 (1963) 1960 607 697 974 1130 1460 2400 2640 3750 5240
2026-04-22 10:45 3.03 690 9030 (1973) 476 (1963) 1960 607 697 974 1130 1460 2400 2640 3750 5240
2026-04-22 09:45 3.03 690 9030 (1973) 476 (1963) 1960 607 697 974 1130 1460 2400 2640 3750 5240
2026-04-22 08:45 3.03 690 9030 (1973) 476 (1963) 1960 607 697 974 1130 1460 2400 2640 3750 5240
2026-04-22 07:45 3.03 690 9030 (1973) 476 (1963) 1960 607 697 974 1130 1460 2400 2640 3750 5240
2026-04-22 06:45 3.03 690 9030 (1973) 476 (1963) 1960 607 697 974 1130 1460 2400 2640 3750 5240
2026-04-22 05:45 3.04 697 9030 (1973) 476 (1963) 1960 607 697 974 1130 1460 2400 2640 3750 5240
2026-04-22 04:45 3.04 697 9030 (1973) 476 (1963) 1960 607 697 974 1130 1460 2400 2640 3750 5240
2026-04-22 03:45 3.04 697 9030 (1973) 476 (1963) 1960 607 697 974 1130 1460 2400 2640 3750 5240
2026-04-22 02:45 3.04 697 9030 (1973) 476 (1963) 1960 607 697 974 1130 1460 2400 2640 3750 5240
2026-04-22 01:45 3.04 697 9030 (1973) 476 (1963) 1960 607 697 974 1130 1460 2400 2640 3750 5240
2026-04-22 00:45 3.04 697 9030 (1973) 476 (1963) 1960 607 697 974 1130 1460 2400 2640 3750 5240
2026-04-21 23:45 3.05 705 9030 (1973) 476 (1963) 1960 607 697 974 1130 1460 2400 2640 3750 5240
2026-04-21 22:45 3.05 705 13500 (1992) 447 (1981) 2030 621 706 983 1100 1500 2610 2850 3490 4230
2026-04-21 21:45 3.06 712 13500 (1992) 447 (1981) 2030 621 706 983 1100 1500 2610 2850 3490 4230
2026-04-21 20:45 3.06 712 13500 (1992) 447 (1981) 2030 621 706 983 1100 1500 2610 2850 3490 4230
2026-04-21 19:45 3.06 712 13500 (1992) 447 (1981) 2030 621 706 983 1100 1500 2610 2850 3490 4230
2026-04-21 18:45 3.07 720 13500 (1992) 447 (1981) 2030 621 706 983 1100 1500 2610 2850 3490 4230
2026-04-21 17:45 3.07 720 13500 (1992) 447 (1981) 2030 621 706 983 1100 1500 2610 2850 3490 4230
2026-04-21 16:45 3.06 712 13500 (1992) 447 (1981) 2030 621 706 983 1100 1500 2610 2850 3490 4230
2026-04-21 15:45 3.08 727 13500 (1992) 447 (1981) 2030 621 706 983 1100 1500 2610 2850 3490 4230
2026-04-21 14:45 3.08 727 13500 (1992) 447 (1981) 2030 621 706 983 1100 1500 2610 2850 3490 4230
2026-04-21 13:45 3.06 712 13500 (1992) 447 (1981) 2030 621 706 983 1100 1500 2610 2850 3490 4230
2026-04-21 12:45 3.07 720 13500 (1992) 447 (1981) 2030 621 706 983 1100 1500 2610 2850 3490 4230
2026-04-21 11:45 3.07 720 13500 (1992) 447 (1981) 2030 621 706 983 1100 1500 2610 2850 3490 4230
2026-04-21 10:45 3.07 720 13500 (1992) 447 (1981) 2030 621 706 983 1100 1500 2610 2850 3490 4230
2026-04-21 09:45 3.09 735 13500 (1992) 447 (1981) 2030 621 706 983 1100 1500 2610 2850 3490 4230
2026-04-21 08:45 3.10 742 13500 (1992) 447 (1981) 2030 621 706 983 1100 1500 2610 2850 3490 4230
2026-04-21 07:45 3.10 742 13500 (1992) 447 (1981) 2030 621 706 983 1100 1500 2610 2850 3490 4230
2026-04-21 06:45 3.10 742 13500 (1992) 447 (1981) 2030 621 706 983 1100 1500 2610 2850 3490 4230
2026-04-21 05:45 3.11 750 13500 (1992) 447 (1981) 2030 621 706 983 1100 1500 2610 2850 3490 4230
2026-04-21 04:45 3.11 750 13500 (1992) 447 (1981) 2030 621 706 983 1100 1500 2610 2850 3490 4230
2026-04-21 03:45 3.11 750 13500 (1992) 447 (1981) 2030 621 706 983 1100 1500 2610 2850 3490 4230
2026-04-21 02:45 3.12 757 13500 (1992) 447 (1981) 2030 621 706 983 1100 1500 2610 2850 3490 4230
2026-04-21 01:45 3.12 757 13500 (1992) 447 (1981) 2030 621 706 983 1100 1500 2610 2850 3490 4230
2026-04-21 00:45 3.12 757 13500 (1992) 447 (1981) 2030 621 706 983 1100 1500 2610 2850 3490 4230
2026-04-20 23:45 3.12 757 13500 (1992) 447 (1981) 2030 621 706 983 1100 1500 2610 2850 3490 4230
2026-04-20 22:45 3.13 765 12900 (1973) 419 (1981) 1970 628 727 970 1110 1510 2370 2560 4010 5130
2026-04-20 21:45 3.13 765 12900 (1973) 419 (1981) 1970 628 727 970 1110 1510 2370 2560 4010 5130
2026-04-20 20:45 3.14 773 12900 (1973) 419 (1981) 1970 628 727 970 1110 1510 2370 2560 4010 5130
2026-04-20 19:45 3.14 773 12900 (1973) 419 (1981) 1970 628 727 970 1110 1510 2370 2560 4010 5130
2026-04-20 18:45 3.14 773 12900 (1973) 419 (1981) 1970 628 727 970 1110 1510 2370 2560 4010 5130
2026-04-20 17:45 3.15 780 12900 (1973) 419 (1981) 1970 628 727 970 1110 1510 2370 2560 4010 5130
2026-04-20 16:45 3.16 788 12900 (1973) 419 (1981) 1970 628 727 970 1110 1510 2370 2560 4010 5130
2026-04-20 15:45 3.16 788 12900 (1973) 419 (1981) 1970 628 727 970 1110 1510 2370 2560 4010 5130
2026-04-20 14:45 3.14 773 12900 (1973) 419 (1981) 1970 628 727 970 1110 1510 2370 2560 4010 5130
2026-04-20 13:45 3.17 795 12900 (1973) 419 (1981) 1970 628 727 970 1110 1510 2370 2560 4010 5130
2026-04-20 12:45 3.17 795 12900 (1973) 419 (1981) 1970 628 727 970 1110 1510 2370 2560 4010 5130
2026-04-20 11:45 3.17 795 12900 (1973) 419 (1981) 1970 628 727 970 1110 1510 2370 2560 4010 5130
2026-04-20 10:45 3.17 795 12900 (1973) 419 (1981) 1970 628 727 970 1110 1510 2370 2560 4010 5130
2026-04-20 09:45 3.17 795 12900 (1973) 419 (1981) 1970 628 727 970 1110 1510 2370 2560 4010 5130
2026-04-20 08:45 3.17 795 12900 (1973) 419 (1981) 1970 628 727 970 1110 1510 2370 2560 4010 5130
2026-04-20 07:45 3.17 795 12900 (1973) 419 (1981) 1970 628 727 970 1110 1510 2370 2560 4010 5130
2026-04-20 06:45 3.17 795 12900 (1973) 419 (1981) 1970 628 727 970 1110 1510 2370 2560 4010 5130
2026-04-20 05:45 3.18 803 12900 (1973) 419 (1981) 1970 628 727 970 1110 1510 2370 2560 4010 5130
2026-04-20 04:45 3.18 803 12900 (1973) 419 (1981) 1970 628 727 970 1110 1510 2370 2560 4010 5130
2026-04-20 03:45 3.18 803 12900 (1973) 419 (1981) 1970 628 727 970 1110 1510 2370 2560 4010 5130
2026-04-20 02:45 3.17 795 12900 (1973) 419 (1981) 1970 628 727 970 1110 1510 2370 2560 4010 5130
2026-04-20 01:45 3.17 795 12900 (1973) 419 (1981) 1970 628 727 970 1110 1510 2370 2560 4010 5130
2026-04-20 00:45 3.17 795 12900 (1973) 419 (1981) 1970 628 727 970 1110 1510 2370 2560 4010 5130
2026-04-19 23:45 3.17 795 12900 (1973) 419 (1981) 1970 628 727 970 1110 1510 2370 2560 4010 5130
2026-04-19 22:45 3.16 788 7580 (1991) 394 (1981) 1830 633 748 934 1060 1530 2150 2500 3060 4920
2026-04-19 21:45 3.16 788 7580 (1991) 394 (1981) 1830 633 748 934 1060 1530 2150 2500 3060 4920
2026-04-19 20:45 3.16 788 7580 (1991) 394 (1981) 1830 633 748 934 1060 1530 2150 2500 3060 4920
2026-04-19 19:45 3.16 788 7580 (1991) 394 (1981) 1830 633 748 934 1060 1530 2150 2500 3060 4920
2026-04-19 18:45 3.15 780 7580 (1991) 394 (1981) 1830 633 748 934 1060 1530 2150 2500 3060 4920
2026-04-19 17:45 3.16 788 7580 (1991) 394 (1981) 1830 633 748 934 1060 1530 2150 2500 3060 4920
2026-04-19 16:45 3.13 765 7580 (1991) 394 (1981) 1830 633 748 934 1060 1530 2150 2500 3060 4920
2026-04-19 15:45 3.16 788 7580 (1991) 394 (1981) 1830 633 748 934 1060 1530 2150 2500 3060 4920
2026-04-19 14:45 3.15 780 7580 (1991) 394 (1981) 1830 633 748 934 1060 1530 2150 2500 3060 4920
2026-04-19 13:45 3.14 773 7580 (1991) 394 (1981) 1830 633 748 934 1060 1530 2150 2500 3060 4920
2026-04-19 12:45 3.11 750 7580 (1991) 394 (1981) 1830 633 748 934 1060 1530 2150 2500 3060 4920
2026-04-19 11:45 3.12 757 7580 (1991) 394 (1981) 1830 633 748 934 1060 1530 2150 2500 3060 4920
2026-04-19 10:45 3.09 735 7580 (1991) 394 (1981) 1830 633 748 934 1060 1530 2150 2500 3060 4920
2026-04-19 09:45 3.09 735 7580 (1991) 394 (1981) 1830 633 748 934 1060 1530 2150 2500 3060 4920
2026-04-19 08:45 3.07 720 7580 (1991) 394 (1981) 1830 633 748 934 1060 1530 2150 2500 3060 4920
2026-04-19 07:45 3.06 712 7580 (1991) 394 (1981) 1830 633 748 934 1060 1530 2150 2500 3060 4920
2026-04-19 06:45 3.05 705 7580 (1991) 394 (1981) 1830 633 748 934 1060 1530 2150 2500 3060 4920
2026-04-19 05:45 3.04 697 7580 (1991) 394 (1981) 1830 633 748 934 1060 1530 2150 2500 3060 4920
2026-04-19 04:45 3.04 697 7580 (1991) 394 (1981) 1830 633 748 934 1060 1530 2150 2500 3060 4920
2026-04-19 03:45 3.03 690 7580 (1991) 394 (1981) 1830 633 748 934 1060 1530 2150 2500 3060 4920
2026-04-19 02:45 3.03 690 7580 (1991) 394 (1981) 1830 633 748 934 1060 1530 2150 2500 3060 4920
2026-04-19 01:45 3.03 690 7580 (1991) 394 (1981) 1830 633 748 934 1060 1530 2150 2500 3060 4920
2026-04-19 00:45 3.02 682 7580 (1991) 394 (1981) 1830 633 748 934 1060 1530 2150 2500 3060 4920
2026-04-18 23:45 3.02 682 7580 (1991) 394 (1981) 1830 633 748 934 1060 1530 2150 2500 3060 4920
2026-04-18 22:45 3.01 675 14600 (1939) 380 (1981) 1860 635 737 923 1040 1460 1980 2170 3460 4090
2026-04-18 21:45 3.00 667 14600 (1939) 380 (1981) 1860 635 737 923 1040 1460 1980 2170 3460 4090
2026-04-18 20:45 3.00 667 14600 (1939) 380 (1981) 1860 635 737 923 1040 1460 1980 2170 3460 4090
2026-04-18 19:45 2.99 660 14600 (1939) 380 (1981) 1860 635 737 923 1040 1460 1980 2170 3460 4090
2026-04-18 18:45 3.00 667 14600 (1939) 380 (1981) 1860 635 737 923 1040 1460 1980 2170 3460 4090
2026-04-18 16:45 3.00 667 14600 (1939) 380 (1981) 1860 635 737 923 1040 1460 1980 2170 3460 4090
2026-04-18 15:45 2.99 660 14600 (1939) 380 (1981) 1860 635 737 923 1040 1460 1980 2170 3460 4090
2026-04-18 14:45 2.99 660 14600 (1939) 380 (1981) 1860 635 737 923 1040 1460 1980 2170 3460 4090
2026-04-18 13:45 2.99 660 14600 (1939) 380 (1981) 1860 635 737 923 1040 1460 1980 2170 3460 4090
2026-04-18 12:45 2.99 660 14600 (1939) 380 (1981) 1860 635 737 923 1040 1460 1980 2170 3460 4090
2026-04-18 11:45 2.99 660 14600 (1939) 380 (1981) 1860 635 737 923 1040 1460 1980 2170 3460 4090
2026-04-18 10:45 2.99 660 14600 (1939) 380 (1981) 1860 635 737 923 1040 1460 1980 2170 3460 4090
2026-04-18 09:45 2.97 644 14600 (1939) 380 (1981) 1860 635 737 923 1040 1460 1980 2170 3460 4090
2026-04-18 08:45 2.98 652 14600 (1939) 380 (1981) 1860 635 737 923 1040 1460 1980 2170 3460 4090
2026-04-18 07:45 2.98 652 14600 (1939) 380 (1981) 1860 635 737 923 1040 1460 1980 2170 3460 4090
2026-04-18 06:45 2.97 644 14600 (1939) 380 (1981) 1860 635 737 923 1040 1460 1980 2170 3460 4090
2026-04-18 05:45 2.97 644 14600 (1939) 380 (1981) 1860 635 737 923 1040 1460 1980 2170 3460 4090
2026-04-18 04:45 2.92 607 14600 (1939) 380 (1981) 1860 635 737 923 1040 1460 1980 2170 3460 4090
2026-04-18 03:45 2.93 614 14600 (1939) 380 (1981) 1860 635 737 923 1040 1460 1980 2170 3460 4090
2026-04-18 02:45 2.95 629 14600 (1939) 380 (1981) 1860 635 737 923 1040 1460 1980 2170 3460 4090
2026-04-18 01:45 2.94 622 14600 (1939) 380 (1981) 1860 635 737 923 1040 1460 1980 2170 3460 4090
2026-04-18 00:45 2.95 629 14600 (1939) 380 (1981) 1860 635 737 923 1040 1460 1980 2170 3460 4090
2026-04-17 23:45 2.95 629 14600 (1939) 380 (1981) 1860 635 737 923 1040 1460 1980 2170 3460 4090
2026-04-17 22:45 2.95 629 11600 (1939) 382 (1981) 1970 642 754 952 1020 1500 2120 2250 3420 5240
2026-04-17 21:45 2.95 629 11600 (1939) 382 (1981) 1970 642 754 952 1020 1500 2120 2250 3420 5240
2026-04-17 20:45 2.95 629 11600 (1939) 382 (1981) 1970 642 754 952 1020 1500 2120 2250 3420 5240
2026-04-17 19:45 2.96 637 11600 (1939) 382 (1981) 1970 642 754 952 1020 1500 2120 2250 3420 5240
2026-04-17 18:45 2.96 637 11600 (1939) 382 (1981) 1970 642 754 952 1020 1500 2120 2250 3420 5240
2026-04-17 17:45 2.94 622 11600 (1939) 382 (1981) 1970 642 754 952 1020 1500 2120 2250 3420 5240
2026-04-17 16:45 2.97 644 11600 (1939) 382 (1981) 1970 642 754 952 1020 1500 2120 2250 3420 5240
2026-04-17 15:45 2.96 637 11600 (1939) 382 (1981) 1970 642 754 952 1020 1500 2120 2250 3420 5240
2026-04-17 14:45 2.96 637 11600 (1939) 382 (1981) 1970 642 754 952 1020 1500 2120 2250 3420 5240
2026-04-17 13:45 2.97 644 11600 (1939) 382 (1981) 1970 642 754 952 1020 1500 2120 2250 3420 5240
2026-04-17 12:45 2.98 652 11600 (1939) 382 (1981) 1970 642 754 952 1020 1500 2120 2250 3420 5240
2026-04-17 11:45 2.98 652 11600 (1939) 382 (1981) 1970 642 754 952 1020 1500 2120 2250 3420 5240
2026-04-17 10:45 2.97 644 11600 (1939) 382 (1981) 1970 642 754 952 1020 1500 2120 2250 3420 5240
2026-04-17 09:45 2.97 644 11600 (1939) 382 (1981) 1970 642 754 952 1020 1500 2120 2250 3420 5240
2026-04-17 08:45 2.99 660 11600 (1939) 382 (1981) 1970 642 754 952 1020 1500 2120 2250 3420 5240
2026-04-17 07:45 3.01 675 11600 (1939) 382 (1981) 1970 642 754 952 1020 1500 2120 2250 3420 5240
2026-04-17 06:45 3.02 682 11600 (1939) 382 (1981) 1970 642 754 952 1020 1500 2120 2250 3420 5240
2026-04-17 05:45 3.03 690 11600 (1939) 382 (1981) 1970 642 754 952 1020 1500 2120 2250 3420 5240
2026-04-17 04:45 3.05 705 11600 (1939) 382 (1981) 1970 642 754 952 1020 1500 2120 2250 3420 5240
2026-04-17 03:45 3.07 720 11600 (1939) 382 (1981) 1970 642 754 952 1020 1500 2120 2250 3420 5240
2026-04-17 02:45 3.10 742 11600 (1939) 382 (1981) 1970 642 754 952 1020 1500 2120 2250 3420 5240
2026-04-17 01:45 3.12 757 11600 (1939) 382 (1981) 1970 642 754 952 1020 1500 2120 2250 3420 5240
2026-04-17 00:45 3.11 750 11600 (1939) 382 (1981) 1970 642 754 952 1020 1500 2120 2250 3420 5240
2026-04-16 23:45 3.08 727 11600 (1939) 382 (1981) 1970 642 754 952 1020 1500 2120 2250 3420 5240
2026-04-16 22:45 3.03 690 19500 (1945) 381 (1981) 2080 644 757 916 1020 1570 2220 2340 3750 5440
2026-04-16 21:45 2.98 652 19500 (1945) 381 (1981) 2080 644 757 916 1020 1570 2220 2340 3750 5440
2026-04-16 20:45 2.95 629 19500 (1945) 381 (1981) 2080 644 757 916 1020 1570 2220 2340 3750 5440
2026-04-16 19:45 2.93 614 19500 (1945) 381 (1981) 2080 644 757 916 1020 1570 2220 2340 3750 5440
2026-04-16 18:45 2.93 614 19500 (1945) 381 (1981) 2080 644 757 916 1020 1570 2220 2340 3750 5440
2026-04-16 17:45 2.93 614 19500 (1945) 381 (1981) 2080 644 757 916 1020 1570 2220 2340 3750 5440
2026-04-16 16:45 2.93 614 19500 (1945) 381 (1981) 2080 644 757 916 1020 1570 2220 2340 3750 5440
2026-04-16 15:45 2.93 614 19500 (1945) 381 (1981) 2080 644 757 916 1020 1570 2220 2340 3750 5440
2026-04-16 14:45 2.90 592 19500 (1945) 381 (1981) 2080 644 757 916 1020 1570 2220 2340 3750 5440
2026-04-16 13:45 2.89 585 19500 (1945) 381 (1981) 2080 644 757 916 1020 1570 2220 2340 3750 5440
2026-04-16 12:45 2.91 599 19500 (1945) 381 (1981) 2080 644 757 916 1020 1570 2220 2340 3750 5440
2026-04-16 11:45 2.91 599 19500 (1945) 381 (1981) 2080 644 757 916 1020 1570 2220 2340 3750 5440
2026-04-16 10:45 2.89 585 19500 (1945) 381 (1981) 2080 644 757 916 1020 1570 2220 2340 3750 5440
2026-04-16 09:45 2.89 585 19500 (1945) 381 (1981) 2080 644 757 916 1020 1570 2220 2340 3750 5440
2026-04-16 08:45 2.88 577 19500 (1945) 381 (1981) 2080 644 757 916 1020 1570 2220 2340 3750 5440
2026-04-16 07:45 2.88 577 19500 (1945) 381 (1981) 2080 644 757 916 1020 1570 2220 2340 3750 5440
2026-04-16 06:45 2.88 577 19500 (1945) 381 (1981) 2080 644 757 916 1020 1570 2220 2340 3750 5440
2026-04-16 05:45 2.88 577 19500 (1945) 381 (1981) 2080 644 757 916 1020 1570 2220 2340 3750 5440
2026-04-16 04:45 2.87 572 19500 (1945) 381 (1981) 2080 644 757 916 1020 1570 2220 2340 3750 5440
2026-04-16 03:45 2.84 556 19500 (1945) 381 (1981) 2080 644 757 916 1020 1570 2220 2340 3750 5440
2026-04-16 02:45 2.87 572 19500 (1945) 381 (1981) 2080 644 757 916 1020 1570 2220 2340 3750 5440
2026-04-16 01:45 2.87 572 19500 (1945) 381 (1981) 2080 644 757 916 1020 1570 2220 2340 3750 5440
2026-04-16 00:45 2.87 572 19500 (1945) 381 (1981) 2080 644 757 916 1020 1570 2220 2340 3750 5440
2026-04-15 23:45 2.87 572 19500 (1945) 381 (1981) 2080 644 757 916 1020 1570 2220 2340 3750 5440
2026-04-15 22:45 2.87 572 15400 (1945) 386 (1981) 2060 641 760 883 952 1560 2080 2390 3620 4600
2026-04-15 21:45 2.87 572 15400 (1945) 386 (1981) 2060 641 760 883 952 1560 2080 2390 3620 4600
2026-04-15 20:45 2.87 572 15400 (1945) 386 (1981) 2060 641 760 883 952 1560 2080 2390 3620 4600
2026-04-15 19:45 2.88 577 15400 (1945) 386 (1981) 2060 641 760 883 952 1560 2080 2390 3620 4600
2026-04-15 18:45 2.88 577 15400 (1945) 386 (1981) 2060 641 760 883 952 1560 2080 2390 3620 4600
2026-04-15 17:45 2.88 577 15400 (1945) 386 (1981) 2060 641 760 883 952 1560 2080 2390 3620 4600
2026-04-15 16:45 2.88 577 15400 (1945) 386 (1981) 2060 641 760 883 952 1560 2080 2390 3620 4600
2026-04-15 15:45 2.89 585 15400 (1945) 386 (1981) 2060 641 760 883 952 1560 2080 2390 3620 4600
2026-04-15 14:45 2.87 572 15400 (1945) 386 (1981) 2060 641 760 883 952 1560 2080 2390 3620 4600
2026-04-15 13:45 2.86 567 15400 (1945) 386 (1981) 2060 641 760 883 952 1560 2080 2390 3620 4600
2026-04-15 12:45 2.86 567 15400 (1945) 386 (1981) 2060 641 760 883 952 1560 2080 2390 3620 4600
2026-04-15 11:45 2.85 561 15400 (1945) 386 (1981) 2060 641 760 883 952 1560 2080 2390 3620 4600
2026-04-15 10:45 2.85 561 15400 (1945) 386 (1981) 2060 641 760 883 952 1560 2080 2390 3620 4600
2026-04-15 09:45 2.85 561 15400 (1945) 386 (1981) 2060 641 760 883 952 1560 2080 2390 3620 4600
2026-04-15 08:45 2.88 577 15400 (1945) 386 (1981) 2060 641 760 883 952 1560 2080 2390 3620 4600
2026-04-15 07:45 2.86 567 15400 (1945) 386 (1981) 2060 641 760 883 952 1560 2080 2390 3620 4600
2026-04-15 06:45 2.88 577 15400 (1945) 386 (1981) 2060 641 760 883 952 1560 2080 2390 3620 4600
2026-04-15 05:45 2.88 577 15400 (1945) 386 (1981) 2060 641 760 883 952 1560 2080 2390 3620 4600
2026-04-15 04:45 2.88 577 15400 (1945) 386 (1981) 2060 641 760 883 952 1560 2080 2390 3620 4600
2026-04-15 03:45 2.88 577 15400 (1945) 386 (1981) 2060 641 760 883 952 1560 2080 2390 3620 4600
2026-04-15 02:45 2.88 577 15400 (1945) 386 (1981) 2060 641 760 883 952 1560 2080 2390 3620 4600
2026-04-15 01:45 2.88 577 15400 (1945) 386 (1981) 2060 641 760 883 952 1560 2080 2390 3620 4600
2026-04-15 00:45 2.88 577 15400 (1945) 386 (1981) 2060 641 760 883 952 1560 2080 2390 3620 4600
2026-04-14 23:45 2.88 577 15400 (1945) 386 (1981) 2060 641 760 883 952 1560 2080 2390 3620 4600
2026-04-14 22:45 2.88 577 10500 (1991) 395 (1981) 1950 531 757 890 966 1530 2240 2500 3340 5530
2026-04-14 21:45 2.88 577 10500 (1991) 395 (1981) 1950 531 757 890 966 1530 2240 2500 3340 5530
2026-04-14 20:45 2.88 577 10500 (1991) 395 (1981) 1950 531 757 890 966 1530 2240 2500 3340 5530
2026-04-14 19:45 2.88 577 10500 (1991) 395 (1981) 1950 531 757 890 966 1530 2240 2500 3340 5530
2026-04-14 18:45 2.88 577 10500 (1991) 395 (1981) 1950 531 757 890 966 1530 2240 2500 3340 5530
2026-04-14 17:45 2.86 567 10500 (1991) 395 (1981) 1950 531 757 890 966 1530 2240 2500 3340 5530
2026-04-14 16:45 2.88 577 10500 (1991) 395 (1981) 1950 531 757 890 966 1530 2240 2500 3340 5530
2026-04-14 15:45 2.88 577 10500 (1991) 395 (1981) 1950 531 757 890 966 1530 2240 2500 3340 5530
2026-04-14 14:45 2.88 577 10500 (1991) 395 (1981) 1950 531 757 890 966 1530 2240 2500 3340 5530
2026-04-14 13:45 2.86 567 10500 (1991) 395 (1981) 1950 531 757 890 966 1530 2240 2500 3340 5530
2026-04-14 12:45 2.86 567 10500 (1991) 395 (1981) 1950 531 757 890 966 1530 2240 2500 3340 5530
2026-04-14 11:45 2.88 577 10500 (1991) 395 (1981) 1950 531 757 890 966 1530 2240 2500 3340 5530
2026-04-14 09:45 2.86 567 10500 (1991) 395 (1981) 1950 531 757 890 966 1530 2240 2500 3340 5530
2026-04-14 08:45 2.88 577 10500 (1991) 395 (1981) 1950 531 757 890 966 1530 2240 2500 3340 5530
2026-04-14 07:45 2.89 585 10500 (1991) 395 (1981) 1950 531 757 890 966 1530 2240 2500 3340 5530
2026-04-14 06:45 2.89 585 10500 (1991) 395 (1981) 1950 531 757 890 966 1530 2240 2500 3340 5530
2026-04-14 05:45 2.89 585 10500 (1991) 395 (1981) 1950 531 757 890 966 1530 2240 2500 3340 5530
2026-04-14 04:45 2.89 585 10500 (1991) 395 (1981) 1950 531 757 890 966 1530 2240 2500 3340 5530
2026-04-14 03:45 2.89 585 10500 (1991) 395 (1981) 1950 531 757 890 966 1530 2240 2500 3340 5530
2026-04-14 02:45 2.89 585 10500 (1991) 395 (1981) 1950 531 757 890 966 1530 2240 2500 3340 5530
2026-04-14 01:45 2.89 585 10500 (1991) 395 (1981) 1950 531 757 890 966 1530 2240 2500 3340 5530
2026-04-14 00:45 2.89 585 10500 (1991) 395 (1981) 1950 531 757 890 966 1530 2240 2500 3340 5530
2026-04-13 23:45 2.89 585 10500 (1991) 395 (1981) 1950 531 757 890 966 1530 2240 2500 3340 5530
2026-04-13 22:45 2.89 585 13100 (1994) 402 (1981) 1960 517 757 929 995 1520 2170 2440 3310 4680
2026-04-13 21:45 2.89 585 13100 (1994) 402 (1981) 1960 517 757 929 995 1520 2170 2440 3310 4680
2026-04-13 20:45 2.89 585 13100 (1994) 402 (1981) 1960 517 757 929 995 1520 2170 2440 3310 4680
2026-04-13 19:45 2.90 592 13100 (1994) 402 (1981) 1960 517 757 929 995 1520 2170 2440 3310 4680
2026-04-13 18:45 2.90 592 13100 (1994) 402 (1981) 1960 517 757 929 995 1520 2170 2440 3310 4680
2026-04-13 17:45 2.88 577 13100 (1994) 402 (1981) 1960 517 757 929 995 1520 2170 2440 3310 4680
2026-04-13 16:45 2.88 577 13100 (1994) 402 (1981) 1960 517 757 929 995 1520 2170 2440 3310 4680
2026-04-13 15:45 2.88 577 13100 (1994) 402 (1981) 1960 517 757 929 995 1520 2170 2440 3310 4680
2026-04-13 14:45 2.87 572 13100 (1994) 402 (1981) 1960 517 757 929 995 1520 2170 2440 3310 4680
2026-04-13 13:45 2.88 577 13100 (1994) 402 (1981) 1960 517 757 929 995 1520 2170 2440 3310 4680
2026-04-13 12:45 2.88 577 13100 (1994) 402 (1981) 1960 517 757 929 995 1520 2170 2440 3310 4680
2026-04-13 11:45 2.89 585 13100 (1994) 402 (1981) 1960 517 757 929 995 1520 2170 2440 3310 4680
2026-04-13 10:45 2.90 592 13100 (1994) 402 (1981) 1960 517 757 929 995 1520 2170 2440 3310 4680
2026-04-13 09:45 2.87 572 13100 (1994) 402 (1981) 1960 517 757 929 995 1520 2170 2440 3310 4680
2026-04-13 08:45 2.88 577 13100 (1994) 402 (1981) 1960 517 757 929 995 1520 2170 2440 3310 4680
2026-04-13 07:45 2.88 577 13100 (1994) 402 (1981) 1960 517 757 929 995 1520 2170 2440 3310 4680
2026-04-13 06:45 2.90 592 13100 (1994) 402 (1981) 1960 517 757 929 995 1520 2170 2440 3310 4680
2026-04-13 05:45 2.90 592 13100 (1994) 402 (1981) 1960 517 757 929 995 1520 2170 2440 3310 4680
2026-04-13 04:45 2.90 592 13100 (1994) 402 (1981) 1960 517 757 929 995 1520 2170 2440 3310 4680
2026-04-13 03:45 2.90 592 13100 (1994) 402 (1981) 1960 517 757 929 995 1520 2170 2440 3310 4680
2026-04-13 02:45 2.90 592 13100 (1994) 402 (1981) 1960 517 757 929 995 1520 2170 2440 3310 4680
2026-04-13 01:45 2.90 592 13100 (1994) 402 (1981) 1960 517 757 929 995 1520 2170 2440 3310 4680
2026-04-13 00:45 2.90 592 13100 (1994) 402 (1981) 1960 517 757 929 995 1520 2170 2440 3310 4680
2026-04-12 23:45 2.90 592 13100 (1994) 402 (1981) 1960 517 757 929 995 1520 2170 2440 3310 4680
2026-04-12 22:45 2.90 592 14600 (1979) 406 (1981) 2000 520 757 921 1010 1560 2340 2500 2990 4590
2026-04-12 21:45 2.90 592 14600 (1979) 406 (1981) 2000 520 757 921 1010 1560 2340 2500 2990 4590
2026-04-12 20:45 2.90 592 14600 (1979) 406 (1981) 2000 520 757 921 1010 1560 2340 2500 2990 4590
2026-04-12 19:45 2.90 592 14600 (1979) 406 (1981) 2000 520 757 921 1010 1560 2340 2500 2990 4590
2026-04-12 18:45 2.90 592 14600 (1979) 406 (1981) 2000 520 757 921 1010 1560 2340 2500 2990 4590
2026-04-12 17:45 2.90 592 14600 (1979) 406 (1981) 2000 520 757 921 1010 1560 2340 2500 2990 4590
2026-04-12 16:45 2.90 592 14600 (1979) 406 (1981) 2000 520 757 921 1010 1560 2340 2500 2990 4590
2026-04-12 15:45 2.91 599 14600 (1979) 406 (1981) 2000 520 757 921 1010 1560 2340 2500 2990 4590
2026-04-12 14:45 2.90 592 14600 (1979) 406 (1981) 2000 520 757 921 1010 1560 2340 2500 2990 4590
2026-04-12 13:45 2.88 577 14600 (1979) 406 (1981) 2000 520 757 921 1010 1560 2340 2500 2990 4590
2026-04-12 12:45 2.88 577 14600 (1979) 406 (1981) 2000 520 757 921 1010 1560 2340 2500 2990 4590
2026-04-12 11:45 2.90 592 14600 (1979) 406 (1981) 2000 520 757 921 1010 1560 2340 2500 2990 4590
2026-04-12 10:45 2.88 577 14600 (1979) 406 (1981) 2000 520 757 921 1010 1560 2340 2500 2990 4590
2026-04-12 09:45 2.90 592 14600 (1979) 406 (1981) 2000 520 757 921 1010 1560 2340 2500 2990 4590
2026-04-12 08:45 2.90 592 14600 (1979) 406 (1981) 2000 520 757 921 1010 1560 2340 2500 2990 4590
2026-04-12 07:45 2.91 599 14600 (1979) 406 (1981) 2000 520 757 921 1010 1560 2340 2500 2990 4590
2026-04-12 06:45 2.91 599 14600 (1979) 406 (1981) 2000 520 757 921 1010 1560 2340 2500 2990 4590
2026-04-12 05:45 2.91 599 14600 (1979) 406 (1981) 2000 520 757 921 1010 1560 2340 2500 2990 4590
2026-04-12 04:45 2.91 599 14600 (1979) 406 (1981) 2000 520 757 921 1010 1560 2340 2500 2990 4590
2026-04-12 03:45 2.91 599 14600 (1979) 406 (1981) 2000 520 757 921 1010 1560 2340 2500 2990 4590
2026-04-12 02:45 2.92 607 14600 (1979) 406 (1981) 2000 520 757 921 1010 1560 2340 2500 2990 4590
2026-04-12 01:45 2.92 607 14600 (1979) 406 (1981) 2000 520 757 921 1010 1560 2340 2500 2990 4590
2026-04-12 00:45 2.92 607 14600 (1979) 406 (1981) 2000 520 757 921 1010 1560 2340 2500 2990 4590
2026-04-11 23:45 2.92 607 14600 (1979) 406 (1981) 2000 520 757 921 1010 1560 2340 2500 2990 4590
2026-04-11 22:45 2.92 607 36900 (2008) 412 (1981) 2170 531 791 868 997 1590 2320 2560 3510 3980
2026-04-11 21:45 2.92 607 36900 (2008) 412 (1981) 2170 531 791 868 997 1590 2320 2560 3510 3980
2026-04-11 20:45 2.92 607 36900 (2008) 412 (1981) 2170 531 791 868 997 1590 2320 2560 3510 3980
2026-04-11 19:45 2.92 607 36900 (2008) 412 (1981) 2170 531 791 868 997 1590 2320 2560 3510 3980
2026-04-11 18:45 2.93 614 36900 (2008) 412 (1981) 2170 531 791 868 997 1590 2320 2560 3510 3980
2026-04-11 17:45 2.93 614 36900 (2008) 412 (1981) 2170 531 791 868 997 1590 2320 2560 3510 3980
2026-04-11 16:45 2.92 607 36900 (2008) 412 (1981) 2170 531 791 868 997 1590 2320 2560 3510 3980
2026-04-11 15:45 2.94 622 36900 (2008) 412 (1981) 2170 531 791 868 997 1590 2320 2560 3510 3980
2026-04-11 14:45 2.90 592 36900 (2008) 412 (1981) 2170 531 791 868 997 1590 2320 2560 3510 3980
2026-04-11 13:45 2.93 614 36900 (2008) 412 (1981) 2170 531 791 868 997 1590 2320 2560 3510 3980
2026-04-11 12:45 2.92 607 36900 (2008) 412 (1981) 2170 531 791 868 997 1590 2320 2560 3510 3980
2026-04-11 11:45 2.93 614 36900 (2008) 412 (1981) 2170 531 791 868 997 1590 2320 2560 3510 3980
2026-04-11 10:45 2.92 607 36900 (2008) 412 (1981) 2170 531 791 868 997 1590 2320 2560 3510 3980
2026-04-11 09:45 2.92 607 36900 (2008) 412 (1981) 2170 531 791 868 997 1590 2320 2560 3510 3980
2026-04-11 08:45 2.92 607 36900 (2008) 412 (1981) 2170 531 791 868 997 1590 2320 2560 3510 3980
2026-04-11 07:45 2.92 607 36900 (2008) 412 (1981) 2170 531 791 868 997 1590 2320 2560 3510 3980
2026-04-11 06:45 2.91 599 36900 (2008) 412 (1981) 2170 531 791 868 997 1590 2320 2560 3510 3980
2026-04-11 05:45 2.91 599 36900 (2008) 412 (1981) 2170 531 791 868 997 1590 2320 2560 3510 3980
2026-04-11 04:45 2.91 599 36900 (2008) 412 (1981) 2170 531 791 868 997 1590 2320 2560 3510 3980
2026-04-11 03:45 2.91 599 36900 (2008) 412 (1981) 2170 531 791 868 997 1590 2320 2560 3510 3980
2026-04-11 02:45 2.91 599 36900 (2008) 412 (1981) 2170 531 791 868 997 1590 2320 2560 3510 3980
2026-04-11 01:45 2.92 607 36900 (2008) 412 (1981) 2170 531 791 868 997 1590 2320 2560 3510 3980
2026-04-11 00:45 2.92 607 36900 (2008) 412 (1981) 2170 531 791 868 997 1590 2320 2560 3510 3980
2026-04-10 23:45 2.92 607 36900 (2008) 412 (1981) 2170 531 791 868 997 1590 2320 2560 3510 3980
2026-04-10 22:45 2.92 607 9550 (2008) 420 (1981) 1760 539 732 858 924 1450 2050 2370 3240 4440
2026-04-10 21:45 2.92 607 9550 (2008) 420 (1981) 1760 539 732 858 924 1450 2050 2370 3240 4440
2026-04-10 20:45 2.91 599 9550 (2008) 420 (1981) 1760 539 732 858 924 1450 2050 2370 3240 4440
2026-04-10 19:45 2.91 599 9550 (2008) 420 (1981) 1760 539 732 858 924 1450 2050 2370 3240 4440
2026-04-10 18:45 2.92 607 9550 (2008) 420 (1981) 1760 539 732 858 924 1450 2050 2370 3240 4440
2026-04-10 17:45 2.93 614 9550 (2008) 420 (1981) 1760 539 732 858 924 1450 2050 2370 3240 4440
2026-04-10 16:45 2.92 607 9550 (2008) 420 (1981) 1760 539 732 858 924 1450 2050 2370 3240 4440
2026-04-10 15:45 2.92 607 9550 (2008) 420 (1981) 1760 539 732 858 924 1450 2050 2370 3240 4440
2026-04-10 14:45 2.91 599 9550 (2008) 420 (1981) 1760 539 732 858 924 1450 2050 2370 3240 4440
2026-04-10 13:45 2.89 585 9550 (2008) 420 (1981) 1760 539 732 858 924 1450 2050 2370 3240 4440
2026-04-10 12:45 2.91 599 9550 (2008) 420 (1981) 1760 539 732 858 924 1450 2050 2370 3240 4440
2026-04-10 11:45 2.91 599 9550 (2008) 420 (1981) 1760 539 732 858 924 1450 2050 2370 3240 4440
2026-04-10 10:45 2.90 592 9550 (2008) 420 (1981) 1760 539 732 858 924 1450 2050 2370 3240 4440
2026-04-10 09:45 2.91 599 9550 (2008) 420 (1981) 1760 539 732 858 924 1450 2050 2370 3240 4440
2026-04-10 08:45 2.90 592 9550 (2008) 420 (1981) 1760 539 732 858 924 1450 2050 2370 3240 4440
2026-04-10 07:45 2.91 599 9550 (2008) 420 (1981) 1760 539 732 858 924 1450 2050 2370 3240 4440
2026-04-10 06:45 2.91 599 9550 (2008) 420 (1981) 1760 539 732 858 924 1450 2050 2370 3240 4440
2026-04-10 05:45 2.91 599 9550 (2008) 420 (1981) 1760 539 732 858 924 1450 2050 2370 3240 4440
2026-04-10 04:45 2.91 599 9550 (2008) 420 (1981) 1760 539 732 858 924 1450 2050 2370 3240 4440
2026-04-10 03:45 2.91 599 9550 (2008) 420 (1981) 1760 539 732 858 924 1450 2050 2370 3240 4440
2026-04-10 02:45 2.91 599 9550 (2008) 420 (1981) 1760 539 732 858 924 1450 2050 2370 3240 4440
2026-04-10 01:45 2.91 599 9550 (2008) 420 (1981) 1760 539 732 858 924 1450 2050 2370 3240 4440
2026-04-10 00:45 2.91 599 9550 (2008) 420 (1981) 1760 539 732 858 924 1450 2050 2370 3240 4440
2026-04-09 23:45 2.92 607 9550 (2008) 420 (1981) 1760 539 732 858 924 1450 2050 2370 3240 4440

A total of 734 rows are displayed for years 1930 through 2025.